Time,TemperatureF,DewpointF,PressureIn,WindDirection,WindDirectionDegrees,WindSpeedMPH,WindSpeedGustMPH,Humidity,HourlyPrecipIn,Conditions,Clouds,dailyrainin,SoftwareType,DateUTC
2013-02-25 00:00:00,40.5,22.3,29.91,NE,53,0.0,4.0,48,-99.99,,,-99.99,WSDL version 423,2013-02-25 06:00:00,
2013-02-25 00:02:00,40.5,22.3,29.91,ESE,116,0.7,4.0,48,-99.99,,,-99.99,WSDL version 423,2013-02-25 06:02:00,
2013-02-25 00:05:00,40.4,22.2,29.91,North,0,0.0,2.5,48,-99.99,,,-99.99,WSDL version 423,2013-02-25 06:05:00,
2013-02-25 00:08:00,40.4,22.1,29.91,North,-999,-999.0,-999.0,47,-99.99,,,-99.99,WSDL version 423,2013-02-25 06:08:00,
2013-02-25 00:11:00,40.3,21.8,29.91,East,90,0.0,1.3,47,-99.99,,,-99.99,WSDL version 423,2013-02-25 06:11:00,
2013-02-25 00:13:00,40.2,21.6,29.91,East,90,0.9,1.6,47,-99.99,,,-99.99,WSDL version 423,2013-02-25 06:13:00,
2013-02-25 00:15:00,40.1,21.5,29.91,North,0,0.0,1.6,47,-99.99,,,-99.99,WSDL version 423,2013-02-25 06:15:00,
2013-02-25 00:16:00,40.1,21.5,29.91,North,0,0.0,1.6,47,-99.99,,,-99.99,WSDL version 423,2013-02-25 06:16:00,
2013-02-25 00:17:00,40.1,21.4,29.91,East,90,1.1,1.6,47,-99.99,,,-99.99,WSDL version 423,2013-02-25 06:17:00,
2013-02-25 00:20:00,40.1,21.4,29.91,East,90,1.3,1.6,47,-99.99,,,-99.99,WSDL version 423,2013-02-25 06:20:00,
2013-02-25 00:25:00,39.9,21.3,29.91,North,0,0.0,1.6,47,-99.99,,,-99.99,WSDL version 423,2013-02-25 06:25:00,
2013-02-25 00:27:00,39.8,21.4,29.91,East,90,0.9,1.6,48,-99.99,,,-99.99,WSDL version 423,2013-02-25 06:27:00,
2013-02-25 00:30:00,39.7,21.6,29.91,NE,45,0.0,1.1,48,-99.99,,,-99.99,WSDL version 423,2013-02-25 06:30:00,
2013-02-25 00:31:00,39.7,21.5,29.94,East,90,0.0,1.3,48,-99.99,,,-99.99,WSDL version 423,2013-02-25 06:31:00,
2013-02-25 00:34:00,39.6,21.4,29.94,North,0,0.0,1.6,48,-99.99,,,-99.99,WSDL version 423,2013-02-25 06:34:00,
2013-02-25 00:35:00,39.6,21.4,29.94,East,90,1.3,2.0,48,-99.99,,,-99.99,WSDL version 423,2013-02-25 06:35:00,
2013-02-25 00:38:00,39.7,21.5,29.94,East,90,1.5,2.0,48,-99.99,,,-99.99,WSDL version 423,2013-02-25 06:38:00,
2013-02-25 00:40:00,39.7,21.6,29.94,North,0,0.0,2.0,48,-99.99,,,-99.99,WSDL version 423,2013-02-25 06:40:00,
2013-02-25 00:41:00,39.7,21.6,29.94,North,0,0.0,2.0,48,-99.99,,,-99.99,WSDL version 423,2013-02-25 06:41:00,
2013-02-25 00:44:00,39.7,21.6,29.94,ENE,68,0.0,2.0,48,-99.99,,,-99.99,WSDL version 423,2013-02-25 06:44:00,
2013-02-25 00:45:00,39.7,21.6,29.94,ENE,68,0.0,1.6,48,-99.99,,,-99.99,WSDL version 423,2013-02-25 06:45:00,
2013-02-25 00:46:00,39.7,21.6,29.94,ENE,68,1.1,1.6,48,-99.99,,,-99.99,WSDL version 423,2013-02-25 06:46:00,
2013-02-25 00:51:00,39.6,21.4,29.94,NNW,338,0.9,1.6,48,-99.99,,,-99.99,WSDL version 423,2013-02-25 06:51:00,
2013-02-25 00:52:00,39.5,21.4,29.94,NNW,338,1.0,1.6,48,-99.99,,,-99.99,WSDL version 423,2013-02-25 06:52:00,
2013-02-25 00:53:00,39.5,21.4,29.94,NNW,338,1.1,1.6,48,-99.99,,,-99.99,WSDL version 423,2013-02-25 06:53:00,
2013-02-25 00:54:00,39.5,21.4,29.94,North,0,0.0,0.9,48,-99.99,,,-99.99,WSDL version 423,2013-02-25 06:54:00,
2013-02-25 00:57:00,39.5,21.4,29.94,East,90,1.3,2.0,48,-99.99,,,-99.99,WSDL version 423,2013-02-25 06:57:00,
2013-02-25 01:02:00,39.5,21.4,29.94,East,90,1.3,2.0,48,-99.99,,,-99.99,WSDL version 423,2013-02-25 07:02:00,
2013-02-25 01:03:00,39.5,21.4,29.94,East,90,1.3,2.0,48,-99.99,,,-99.99,WSDL version 423,2013-02-25 07:03:00,
2013-02-25 01:05:00,39.5,21.4,29.94,East,90,0.0,2.0,48,-99.99,,,-99.99,WSDL version 423,2013-02-25 07:05:00,
2013-02-25 01:07:00,39.5,21.4,29.94,NNE,23,1.1,1.1,48,-99.99,,,-99.99,WSDL version 423,2013-02-25 07:07:00,
2013-02-25 01:08:00,39.5,21.3,29.94,NNE,23,1.1,1.1,48,-99.99,,,-99.99,WSDL version 423,2013-02-25 07:08:00,
2013-02-25 01:09:00,39.4,21.3,29.94,NNE,23,0.0,0.9,48,-99.99,,,-99.99,WSDL version 423,2013-02-25 07:09:00,
2013-02-25 01:12:00,39.4,21.2,29.94,North,0,0.0,0.9,48,-99.99,,,-99.99,WSDL version 423,2013-02-25 07:12:00,
2013-02-25 01:13:00,39.4,21.2,29.94,North,0,0.0,0.0,48,-99.99,,,-99.99,WSDL version 423,2013-02-25 07:13:00,
2013-02-25 01:14:00,39.4,21.2,29.94,North,360,0.9,0.9,48,-99.99,,,-99.99,WSDL version 423,2013-02-25 07:14:00,
2013-02-25 01:17:00,39.4,21.3,29.94,North,0,0.0,0.9,49,-99.99,,,-99.99,WSDL version 423,2013-02-25 07:17:00,
2013-02-25 01:19:00,39.5,21.5,29.94,North,-999,-999.0,-999.0,49,-99.99,,,-99.99,WSDL version 423,2013-02-25 07:19:00,
2013-02-25 01:24:00,39.5,22.2,29.94,North,-999,-999.0,-999.0,50,-99.99,,,-99.99,WSDL version 423,2013-02-25 07:24:00,
2013-02-25 01:25:00,39.5,22.2,29.94,North,-999,-999.0,-999.0,50,-99.99,,,-99.99,WSDL version 423,2013-02-25 07:25:00,
2013-02-25 01:28:00,39.5,22.3,29.94,North,0,0.0,2.5,50,-99.99,,,-99.99,WSDL version 423,2013-02-25 07:28:00,
2013-02-25 01:29:00,39.5,22.4,29.94,North,0,0.0,2.5,51,-99.99,,,-99.99,WSDL version 423,2013-02-25 07:29:00,
2013-02-25 01:31:00,39.5,22.4,29.91,North,-999,-999.0,-999.0,50,-99.99,,,-99.99,WSDL version 423,2013-02-25 07:31:00,
2013-02-25 01:32:00,39.5,22.4,29.91,NNW,338,1.1,2.5,50,-99.99,,,-99.99,WSDL version 423,2013-02-25 07:32:00,
2013-02-25 01:34:00,39.5,22.5,29.91,North,0,0.0,2.5,51,-99.99,,,-99.99,WSDL version 423,2013-02-25 07:34:00,
2013-02-25 01:36:00,39.4,22.7,29.91,North,0,0.0,1.3,52,-99.99,,,-99.99,WSDL version 423,2013-02-25 07:36:00,
2013-02-25 01:37:00,39.4,22.8,29.91,North,-999,-999.0,-999.0,52,-99.99,,,-99.99,WSDL version 423,2013-02-25 07:37:00,
2013-02-25 01:38:00,39.4,22.9,29.91,North,360,2.2,3.4,52,-99.99,,,-99.99,WSDL version 423,2013-02-25 07:38:00,
2013-02-25 01:42:00,39.4,22.8,29.91,North,0,0.0,3.4,51,-99.99,,,-99.99,WSDL version 423,2013-02-25 07:42:00,
2013-02-25 01:43:00,39.4,22.7,29.91,North,-999,-999.0,-999.0,51,-99.99,,,-99.99,WSDL version 423,2013-02-25 07:43:00,
2013-02-25 01:44:00,39.4,22.6,29.91,North,-999,-999.0,-999.0,51,-99.99,,,-99.99,WSDL version 423,2013-02-25 07:44:00,
2013-02-25 01:47:00,39.3,22.4,29.91,North,-999,-999.0,-999.0,51,-99.99,,,-99.99,WSDL version 423,2013-02-25 07:47:00,
2013-02-25 01:49:00,39.2,22.3,29.91,North,-999,-999.0,-999.0,51,-99.99,,,-99.99,WSDL version 423,2013-02-25 07:49:00,
2013-02-25 01:52:00,39.2,22.4,29.91,NE,45,1.6,2.5,51,-99.99,,,-99.99,WSDL version 423,2013-02-25 07:52:00,
2013-02-25 01:54:00,39.2,22.2,29.91,North,0,0.0,2.5,50,-99.99,,,-99.99,WSDL version 423,2013-02-25 07:54:00,
2013-02-25 01:57:00,39.2,22.0,29.91,North,-999,-999.0,-999.0,50,-99.99,,,-99.99,WSDL version 423,2013-02-25 07:57:00,
2013-02-25 01:58:00,39.2,22.0,29.91,North,-999,-999.0,-999.0,51,-99.99,,,-99.99,WSDL version 423,2013-02-25 07:58:00,
2013-02-25 01:59:00,39.2,22.1,29.91,North,-999,-999.0,-999.0,51,-99.99,,,-99.99,WSDL version 423,2013-02-25 07:59:00,
2013-02-25 02:00:00,39.2,22.2,29.91,North,-999,-999.0,-999.0,51,-99.99,,,-99.99,WSDL version 423,2013-02-25 08:00:00,
2013-02-25 02:02:00,39.2,22.4,29.91,North,-999,-999.0,-999.0,51,-99.99,,,-99.99,WSDL version 423,2013-02-25 08:02:00,
2013-02-25 02:05:00,39.2,22.4,29.91,NNW,338,2.0,2.9,51,-99.99,,,-99.99,WSDL version 423,2013-02-25 08:05:00,
2013-02-25 02:07:00,39.2,22.4,29.91,North,353,1.9,2.9,51,-99.99,,,-99.99,WSDL version 423,2013-02-25 08:07:00,
2013-02-25 02:08:00,39.2,22.4,29.91,North,353,1.7,2.9,51,-99.99,,,-99.99,WSDL version 423,2013-02-25 08:08:00,
2013-02-25 02:12:00,39.2,22.0,29.91,North,0,0.0,2.9,50,-99.99,,,-99.99,WSDL version 423,2013-02-25 08:12:00,
2013-02-25 02:13:00,39.2,22.0,29.91,North,0,0.0,2.9,50,-99.99,,,-99.99,WSDL version 423,2013-02-25 08:13:00,
2013-02-25 02:14:00,39.2,22.0,29.91,North,0,0.0,2.9,50,-99.99,,,-99.99,WSDL version 423,2013-02-25 08:14:00,
2013-02-25 02:15:00,39.2,22.0,29.91,North,-999,-999.0,-999.0,50,-99.99,,,-99.99,WSDL version 423,2013-02-25 08:15:00,
2013-02-25 02:17:00,39.2,22.0,29.94,North,-999,-999.0,-999.0,50,-99.99,,,-99.99,WSDL version 423,2013-02-25 08:17:00,
2013-02-25 02:18:00,39.2,22.0,29.94,North,-999,-999.0,-999.0,50,-99.99,,,-99.99,WSDL version 423,2013-02-25 08:18:00,
2013-02-25 02:21:00,39.2,22.0,29.94,North,-999,-999.0,-999.0,50,-99.99,,,-99.99,WSDL version 423,2013-02-25 08:21:00,
2013-02-25 02:23:00,39.2,22.0,29.94,NNW,338,0.0,0.0,50,-99.99,,,-99.99,WSDL version 423,2013-02-25 08:23:00,
2013-02-25 02:26:00,39.2,22.0,29.94,North,0,0.0,0.0,50,-99.99,,,-99.99,WSDL version 423,2013-02-25 08:26:00,
2013-02-25 02:28:00,39.2,22.0,29.94,North,-999,-999.0,-999.0,50,-99.99,,,-99.99,WSDL version 423,2013-02-25 08:28:00,
2013-02-25 02:29:00,39.2,22.0,29.94,North,-999,-999.0,-999.0,50,-99.99,,,-99.99,WSDL version 423,2013-02-25 08:29:00,
2013-02-25 02:30:00,39.2,22.0,29.94,North,-999,-999.0,-999.0,50,-99.99,,,-99.99,WSDL version 423,2013-02-25 08:30:00,
2013-02-25 02:32:00,39.1,21.9,29.94,North,-999,-999.0,-999.0,50,-99.99,,,-99.99,WSDL version 423,2013-02-25 08:32:00,
2013-02-25 02:34:00,39.0,21.9,29.94,North,-999,-999.0,-999.0,51,-99.99,,,-99.99,WSDL version 423,2013-02-25 08:34:00,
2013-02-25 02:37:00,39.0,21.9,29.94,North,-999,-999.0,-999.0,50,-99.99,,,-99.99,WSDL version 423,2013-02-25 08:37:00,
2013-02-25 02:39:00,38.9,21.9,29.94,North,-999,-999.0,-999.0,51,-99.99,,,-99.99,WSDL version 423,2013-02-25 08:39:00,
2013-02-25 02:42:00,38.9,22.1,29.94,North,-999,-999.0,-999.0,51,-99.99,,,-99.99,WSDL version 423,2013-02-25 08:42:00,
2013-02-25 02:43:00,38.9,22.2,29.94,North,-999,-999.0,-999.0,51,-99.99,,,-99.99,WSDL version 423,2013-02-25 08:43:00,
2013-02-25 02:44:00,39.0,22.2,29.94,North,-999,-999.0,-999.0,51,-99.99,,,-99.99,WSDL version 423,2013-02-25 08:44:00,
2013-02-25 02:47:00,39.0,22.1,29.94,North,-999,-999.0,-999.0,51,-99.99,,,-99.99,WSDL version 423,2013-02-25 08:47:00,
2013-02-25 02:48:00,39.0,22.1,29.94,North,-999,-999.0,-999.0,51,-99.99,,,-99.99,WSDL version 423,2013-02-25 08:48:00,
2013-02-25 02:49:00,39.0,22.1,29.94,North,-999,-999.0,-999.0,51,-99.99,,,-99.99,WSDL version 423,2013-02-25 08:49:00,
2013-02-25 02:52:00,39.0,22.1,29.94,North,0,0.0,0.0,50,-99.99,,,-99.99,WSDL version 423,2013-02-25 08:52:00,
2013-02-25 02:54:00,39.0,22.1,29.94,NNW,338,1.1,2.0,51,-99.99,,,-99.99,WSDL version 423,2013-02-25 08:54:00,
2013-02-25 02:56:00,39.0,22.2,29.94,North,0,0.0,2.0,52,-99.99,,,-99.99,WSDL version 423,2013-02-25 08:56:00,
2013-02-25 02:57:00,39.0,22.3,29.94,North,0,0.0,2.0,52,-99.99,,,-99.99,WSDL version 423,2013-02-25 08:57:00,
2013-02-25 03:00:00,38.9,22.3,29.94,North,-999,-999.0,-999.0,51,-99.99,,,-99.99,WSDL version 423,2013-02-25 09:00:00,
2013-02-25 03:02:00,38.8,22.1,29.94,North,-999,-999.0,-999.0,51,-99.99,,,-99.99,WSDL version 423,2013-02-25 09:02:00,
2013-02-25 03:04:00,38.8,22.0,29.94,NNW,338,0.0,0.0,51,-99.99,,,-99.99,WSDL version 423,2013-02-25 09:04:00,
2013-02-25 03:05:00,38.8,21.9,29.94,NE,51,0.0,0.0,50,-99.99,,,-99.99,WSDL version 423,2013-02-25 09:05:00,
2013-02-25 03:09:00,38.6,21.5,29.94,North,0,0.0,1.3,51,-99.99,,,-99.99,WSDL version 423,2013-02-25 09:09:00,
2013-02-25 03:11:00,38.5,21.6,29.94,North,0,0.0,1.3,51,-99.99,,,-99.99,WSDL version 423,2013-02-25 09:11:00,
2013-02-25 03:14:00,38.5,21.6,29.94,North,-999,-999.0,-999.0,51,-99.99,,,-99.99,WSDL version 423,2013-02-25 09:14:00,
2013-02-25 03:16:00,38.5,21.7,29.94,North,-999,-999.0,-999.0,51,-99.99,,,-99.99,WSDL version 423,2013-02-25 09:16:00,
2013-02-25 03:18:00,38.5,21.6,29.94,North,-999,-999.0,-999.0,50,-99.99,,,-99.99,WSDL version 423,2013-02-25 09:18:00,
2013-02-25 03:19:00,38.4,21.6,29.94,North,-999,-999.0,-999.0,50,-99.99,,,-99.99,WSDL version 423,2013-02-25 09:19:00,
2013-02-25 03:21:00,38.4,21.3,29.94,North,-999,-999.0,-999.0,50,-99.99,,,-99.99,WSDL version 423,2013-02-25 09:21:00,
2013-02-25 03:23:00,38.3,21.3,29.94,NNE,23,0.0,0.0,51,-99.99,,,-99.99,WSDL version 423,2013-02-25 09:23:00,
2013-02-25 03:26:00,38.1,21.3,29.94,North,0,0.0,0.0,51,-99.99,,,-99.99,WSDL version 423,2013-02-25 09:26:00,
2013-02-25 03:29:00,38.1,21.4,29.94,North,-999,-999.0,-999.0,52,-99.99,,,-99.99,WSDL version 423,2013-02-25 09:29:00,
2013-02-25 03:31:00,38.1,21.9,29.91,North,-999,-999.0,-999.0,52,-99.99,,,-99.99,WSDL version 423,2013-02-25 09:31:00,
2013-02-25 03:35:00,38.2,22.3,29.91,NNW,338,2.7,2.7,53,-99.99,,,-99.99,WSDL version 423,2013-02-25 09:35:00,
2013-02-25 03:36:00,38.2,22.5,29.91,NNW,338,2.7,2.7,53,-99.99,,,-99.99,WSDL version 423,2013-02-25 09:36:00,
2013-02-25 03:38:00,38.4,22.8,29.91,North,0,0.0,2.7,53,-99.99,,,-99.99,WSDL version 423,2013-02-25 09:38:00,
2013-02-25 03:41:00,38.6,23.1,29.91,North,-999,-999.0,-999.0,53,-99.99,,,-99.99,WSDL version 423,2013-02-25 09:41:00,
2013-02-25 03:42:00,38.6,23.1,29.91,North,-999,-999.0,-999.0,53,-99.99,,,-99.99,WSDL version 423,2013-02-25 09:42:00,
2013-02-25 03:43:00,38.6,23.1,29.91,North,-999,-999.0,-999.0,52,-99.99,,,-99.99,WSDL version 423,2013-02-25 09:43:00,
2013-02-25 03:46:00,38.6,22.8,29.91,North,-999,-999.0,-999.0,52,-99.99,,,-99.99,WSDL version 423,2013-02-25 09:46:00,
2013-02-25 03:47:00,38.6,22.6,29.91,North,-999,-999.0,-999.0,52,-99.99,,,-99.99,WSDL version 423,2013-02-25 09:47:00,
2013-02-25 03:49:00,38.6,22.4,29.91,North,-999,-999.0,-999.0,52,-99.99,,,-99.99,WSDL version 423,2013-02-25 09:49:00,
2013-02-25 03:50:00,38.6,22.3,29.91,North,-999,-999.0,-999.0,52,-99.99,,,-99.99,WSDL version 423,2013-02-25 09:50:00,
2013-02-25 03:52:00,38.5,22.1,29.91,North,-999,-999.0,-999.0,52,-99.99,,,-99.99,WSDL version 423,2013-02-25 09:52:00,
2013-02-25 03:54:00,38.4,22.0,29.91,North,-999,-999.0,-999.0,51,-99.99,,,-99.99,WSDL version 423,2013-02-25 09:54:00,
2013-02-25 03:56:00,38.3,21.9,29.91,North,-999,-999.0,-999.0,51,-99.99,,,-99.99,WSDL version 423,2013-02-25 09:56:00,
2013-02-25 03:57:00,38.3,21.8,29.91,North,-999,-999.0,-999.0,52,-99.99,,,-99.99,WSDL version 423,2013-02-25 09:57:00,
2013-02-25 03:59:00,38.3,21.9,29.91,North,-999,-999.0,-999.0,52,-99.99,,,-99.99,WSDL version 423,2013-02-25 09:59:00,
2013-02-25 04:01:00,38.3,22.0,29.91,North,-999,-999.0,-999.0,52,-99.99,,,-99.99,WSDL version 423,2013-02-25 10:01:00,
2013-02-25 04:04:00,38.4,22.1,29.91,North,-999,-999.0,-999.0,52,-99.99,,,-99.99,WSDL version 423,2013-02-25 10:04:00,
2013-02-25 04:05:00,38.5,22.1,29.91,North,-999,-999.0,-999.0,52,-99.99,,,-99.99,WSDL version 423,2013-02-25 10:05:00,
2013-02-25 04:08:00,38.4,22.1,29.91,North,-999,-999.0,-999.0,52,-99.99,,,-99.99,WSDL version 423,2013-02-25 10:08:00,
2013-02-25 04:09:00,38.4,22.0,29.91,North,-999,-999.0,-999.0,52,-99.99,,,-99.99,WSDL version 423,2013-02-25 10:09:00,
2013-02-25 04:10:00,38.3,22.0,29.91,North,-999,-999.0,-999.0,52,-99.99,,,-99.99,WSDL version 423,2013-02-25 10:10:00,
2013-02-25 04:11:00,38.3,22.0,29.91,ESE,113,1.6,2.0,52,-99.99,,,-99.99,WSDL version 423,2013-02-25 10:11:00,
2013-02-25 04:15:00,38.2,22.2,29.91,North,0,0.0,2.0,52,-99.99,,,-99.99,WSDL version 423,2013-02-25 10:15:00,
2013-02-25 04:16:00,38.2,22.1,29.91,North,-999,-999.0,-999.0,52,-99.99,,,-99.99,WSDL version 423,2013-02-25 10:16:00,
2013-02-25 04:18:00,38.1,22.0,29.91,East,90,1.1,2.0,52,-99.99,,,-99.99,WSDL version 423,2013-02-25 10:18:00,
2013-02-25 04:21:00,38.1,22.1,29.91,East,90,1.6,2.5,52,-99.99,,,-99.99,WSDL version 423,2013-02-25 10:21:00,
2013-02-25 04:24:00,38.1,22.4,29.91,North,0,0.0,2.5,52,-99.99,,,-99.99,WSDL version 423,2013-02-25 10:24:00,
2013-02-25 04:26:00,38.1,22.4,29.91,North,-999,-999.0,-999.0,52,-99.99,,,-99.99,WSDL version 423,2013-02-25 10:26:00,
2013-02-25 04:29:00,38.1,22.2,29.91,North,-999,-999.0,-999.0,52,-99.99,,,-99.99,WSDL version 423,2013-02-25 10:29:00,
2013-02-25 04:30:00,38.1,22.2,29.91,North,-999,-999.0,-999.0,52,-99.99,,,-99.99,WSDL version 423,2013-02-25 10:30:00,
2013-02-25 04:31:00,38.1,22.2,29.91,North,-999,-999.0,-999.0,52,-99.99,,,-99.99,WSDL version 423,2013-02-25 10:31:00,
2013-02-25 04:35:00,38.1,22.2,29.91,North,-999,-999.0,-999.0,52,-99.99,,,-99.99,WSDL version 423,2013-02-25 10:35:00,
2013-02-25 04:36:00,38.1,22.1,29.91,North,-999,-999.0,-999.0,52,-99.99,,,-99.99,WSDL version 423,2013-02-25 10:36:00,
2013-02-25 04:39:00,38.1,22.1,29.91,SSE,158,0.0,1.3,52,-99.99,,,-99.99,WSDL version 423,2013-02-25 10:39:00,
2013-02-25 04:41:00,38.1,22.0,29.91,North,0,0.0,1.3,52,-99.99,,,-99.99,WSDL version 423,2013-02-25 10:41:00,
2013-02-25 04:42:00,38.1,21.9,29.91,North,0,0.0,1.3,52,-99.99,,,-99.99,WSDL version 423,2013-02-25 10:42:00,
2013-02-25 04:47:00,38.1,22.1,29.91,North,-999,-999.0,-999.0,52,-99.99,,,-99.99,WSDL version 423,2013-02-25 10:47:00,
2013-02-25 04:48:00,38.2,22.2,29.91,ESE,113,1.6,1.6,52,-99.99,,,-99.99,WSDL version 423,2013-02-25 10:48:00,
2013-02-25 04:49:00,38.2,22.3,29.91,ESE,113,1.6,1.6,52,-99.99,,,-99.99,WSDL version 423,2013-02-25 10:49:00,
2013-02-25 04:51:00,38.3,22.4,29.91,North,0,0.0,1.6,52,-99.99,,,-99.99,WSDL version 423,2013-02-25 10:51:00,
2013-02-25 04:53:00,38.3,22.4,29.91,North,-999,-999.0,-999.0,52,-99.99,,,-99.99,WSDL version 423,2013-02-25 10:53:00,
2013-02-25 04:54:00,38.3,22.4,29.91,North,-999,-999.0,-999.0,52,-99.99,,,-99.99,WSDL version 423,2013-02-25 10:54:00,
2013-02-25 04:56:00,38.3,22.4,29.91,North,-999,-999.0,-999.0,52,-99.99,,,-99.99,WSDL version 423,2013-02-25 10:56:00,
2013-02-25 04:58:00,38.3,22.5,29.91,North,-999,-999.0,-999.0,53,-99.99,,,-99.99,WSDL version 423,2013-02-25 10:58:00,
2013-02-25 05:01:00,38.3,22.7,29.91,North,-999,-999.0,-999.0,52,-99.99,,,-99.99,WSDL version 423,2013-02-25 11:01:00,
2013-02-25 05:03:00,38.3,22.6,29.91,North,-999,-999.0,-999.0,53,-99.99,,,-99.99,WSDL version 423,2013-02-25 11:03:00,
2013-02-25 05:05:00,38.2,22.4,29.91,East,90,1.1,1.6,52,-99.99,,,-99.99,WSDL version 423,2013-02-25 11:05:00,
2013-02-25 05:06:00,38.2,22.4,29.91,East,90,1.1,1.6,53,-99.99,,,-99.99,WSDL version 423,2013-02-25 11:06:00,
2013-02-25 05:09:00,38.1,22.6,29.91,North,0,0.0,1.6,53,-99.99,,,-99.99,WSDL version 423,2013-02-25 11:09:00,
2013-02-25 05:10:00,38.2,22.7,29.91,North,-999,-999.0,-999.0,53,-99.99,,,-99.99,WSDL version 423,2013-02-25 11:10:00,
2013-02-25 05:15:00,38.3,22.8,29.91,North,0,0.0,0.9,53,-99.99,,,-99.99,WSDL version 423,2013-02-25 11:15:00,
2013-02-25 05:16:00,38.3,22.8,29.91,North,0,0.0,0.9,53,-99.99,,,-99.99,WSDL version 423,2013-02-25 11:16:00,
2013-02-25 05:17:00,38.3,22.8,29.91,North,-999,-999.0,-999.0,53,-99.99,,,-99.99,WSDL version 423,2013-02-25 11:17:00,
2013-02-25 05:21:00,38.5,23.0,29.91,North,-999,-999.0,-999.0,53,-99.99,,,-99.99,WSDL version 423,2013-02-25 11:21:00,
2013-02-25 05:22:00,38.5,23.0,29.91,East,90,2.5,2.5,53,-99.99,,,-99.99,WSDL version 423,2013-02-25 11:22:00,
2013-02-25 05:24:00,38.5,23.0,29.91,North,0,0.0,2.2,52,-99.99,,,-99.99,WSDL version 423,2013-02-25 11:24:00,
2013-02-25 05:27:00,38.4,22.6,29.91,North,-999,-999.0,-999.0,52,-99.99,,,-99.99,WSDL version 423,2013-02-25 11:27:00,
2013-02-25 05:29:00,38.3,22.3,29.91,East,90,2.2,2.2,52,-99.99,,,-99.99,WSDL version 423,2013-02-25 11:29:00,
2013-02-25 05:32:00,38.3,22.2,29.91,North,0,0.0,0.9,52,-99.99,,,-99.99,WSDL version 423,2013-02-25 11:32:00,
2013-02-25 05:35:00,38.3,22.2,29.91,North,-999,-999.0,-999.0,52,-99.99,,,-99.99,WSDL version 423,2013-02-25 11:35:00,
2013-02-25 05:38:00,38.3,21.8,29.91,SE,135,0.9,2.0,51,-99.99,,,-99.99,WSDL version 423,2013-02-25 11:38:00,
2013-02-25 05:40:00,38.3,21.6,29.91,North,0,0.0,2.0,51,-99.99,,,-99.99,WSDL version 423,2013-02-25 11:40:00,
2013-02-25 05:43:00,38.3,21.8,29.91,North,-999,-999.0,-999.0,52,-99.99,,,-99.99,WSDL version 423,2013-02-25 11:43:00,
2013-02-25 05:44:00,38.3,21.7,29.91,North,-999,-999.0,-999.0,51,-99.99,,,-99.99,WSDL version 423,2013-02-25 11:44:00,
2013-02-25 05:45:00,38.2,21.7,29.91,North,-999,-999.0,-999.0,51,-99.99,,,-99.99,WSDL version 423,2013-02-25 11:45:00,
2013-02-25 05:49:00,38.0,21.3,29.91,North,0,0.0,0.0,51,-99.99,,,-99.99,WSDL version 423,2013-02-25 11:49:00,
2013-02-25 05:52:00,37.9,21.2,29.91,North,-999,-999.0,-999.0,51,-99.99,,,-99.99,WSDL version 423,2013-02-25 11:52:00,
2013-02-25 05:54:00,37.9,21.4,29.91,North,-999,-999.0,-999.0,52,-99.99,,,-99.99,WSDL version 423,2013-02-25 11:54:00,
2013-02-25 05:56:00,37.9,21.6,29.91,North,-999,-999.0,-999.0,52,-99.99,,,-99.99,WSDL version 423,2013-02-25 11:56:00,
2013-02-25 05:57:00,37.9,21.6,29.91,North,-999,-999.0,-999.0,51,-99.99,,,-99.99,WSDL version 423,2013-02-25 11:57:00,
2013-02-25 06:01:00,37.9,21.2,29.91,North,0,0.0,0.0,51,-99.99,,,-99.99,WSDL version 423,2013-02-25 12:01:00,
2013-02-25 06:06:00,37.9,21.6,29.91,North,0,0.0,0.0,52,-99.99,,,-99.99,WSDL version 423,2013-02-25 12:06:00,
2013-02-25 06:07:00,37.9,21.6,29.91,North,0,0.0,0.0,52,-99.99,,,-99.99,WSDL version 423,2013-02-25 12:07:00,
2013-02-25 06:12:00,38.0,21.7,29.91,ESE,113,0.9,2.0,52,-99.99,,,-99.99,WSDL version 423,2013-02-25 12:12:00,
2013-02-25 06:14:00,38.0,21.7,29.91,North,0,0.0,2.0,52,-99.99,,,-99.99,WSDL version 423,2013-02-25 12:14:00,
2013-02-25 06:15:00,38.0,21.7,29.91,North,0,0.0,2.0,52,-99.99,,,-99.99,WSDL version 423,2013-02-25 12:15:00,
2013-02-25 06:18:00,38.1,21.8,29.91,WNW,293,1.4,1.4,52,-99.99,,,-99.99,WSDL version 423,2013-02-25 12:18:00,
2013-02-25 06:20:00,38.1,21.9,29.91,North,0,0.0,1.1,52,-99.99,,,-99.99,WSDL version 423,2013-02-25 12:20:00,
2013-02-25 06:23:00,38.2,22.4,29.91,NNW,338,2.0,2.0,53,-99.99,,,-99.99,WSDL version 423,2013-02-25 12:23:00,
2013-02-25 06:24:00,38.2,22.8,29.91,NNW,338,2.2,3.1,54,-99.99,,,-99.99,WSDL version 423,2013-02-25 12:24:00,
2013-02-25 06:25:00,38.3,23.0,29.91,North,354,2.4,3.1,54,-99.99,,,-99.99,WSDL version 423,2013-02-25 12:25:00,
2013-02-25 06:28:00,38.4,23.3,29.91,NNW,338,0.9,3.1,53,-99.99,,,-99.99,WSDL version 423,2013-02-25 12:28:00,
2013-02-25 06:30:00,38.5,23.1,29.91,NE,38,1.2,3.1,53,-99.99,,,-99.99,WSDL version 423,2013-02-25 12:30:00,
2013-02-25 06:33:00,38.5,23.0,29.91,North,6,1.9,4.0,53,-99.99,,,-99.99,WSDL version 423,2013-02-25 12:33:00,
2013-02-25 06:38:00,38.6,23.5,29.91,NNW,347,2.7,4.0,55,-99.99,,,-99.99,WSDL version 423,2013-02-25 12:38:00,
2013-02-25 06:40:00,38.6,23.7,29.91,North,351,1.6,4.0,54,-99.99,,,-99.99,WSDL version 423,2013-02-25 12:40:00,
2013-02-25 06:42:00,38.7,23.7,29.91,North,351,2.1,4.0,54,-99.99,,,-99.99,WSDL version 423,2013-02-25 12:42:00,
2013-02-25 06:43:00,38.7,23.7,29.91,North,360,2.8,3.4,54,-99.99,,,-99.99,WSDL version 423,2013-02-25 12:43:00,
2013-02-25 06:44:00,38.8,23.7,29.91,North,350,2.4,3.4,54,-99.99,,,-99.99,WSDL version 423,2013-02-25 12:44:00,
2013-02-25 06:47:00,38.8,23.6,29.91,ENE,62,1.8,3.4,53,-99.99,,,-99.99,WSDL version 423,2013-02-25 12:47:00,
2013-02-25 06:51:00,38.9,23.4,29.91,NNE,32,1.7,4.0,53,-99.99,,,-99.99,WSDL version 423,2013-02-25 12:51:00,
2013-02-25 06:52:00,38.9,23.4,29.91,NNE,17,2.2,4.0,53,-99.99,,,-99.99,WSDL version 423,2013-02-25 12:52:00,
2013-02-25 06:53:00,39.0,23.5,29.91,North,353,2.2,4.0,53,-99.99,,,-99.99,WSDL version 423,2013-02-25 12:53:00,
2013-02-25 06:58:00,39.2,23.8,29.91,North,9,1.8,4.0,54,-99.99,,,-99.99,WSDL version 423,2013-02-25 12:58:00,
2013-02-25 06:59:00,39.2,23.9,29.91,North,360,2.6,4.0,54,-99.99,,,-99.99,WSDL version 423,2013-02-25 12:59:00,
2013-02-25 07:00:00,39.3,24.0,29.91,NNW,344,2.0,3.8,54,-99.99,,,-99.99,WSDL version 423,2013-02-25 13:00:00,
2013-02-25 07:04:00,39.5,24.3,29.91,North,5,2.2,4.0,54,-99.99,,,-99.99,WSDL version 423,2013-02-25 13:04:00,
2013-02-25 07:05:00,39.5,24.3,29.91,NNE,19,1.8,4.0,53,-99.99,,,-99.99,WSDL version 423,2013-02-25 13:05:00,
2013-02-25 07:06:00,39.5,24.2,29.91,North,11,1.3,4.0,53,-99.99,,,-99.99,WSDL version 423,2013-02-25 13:06:00,
2013-02-25 07:07:00,39.5,24.2,29.91,NNE,29,1.5,4.0,53,-99.99,,,-99.99,WSDL version 423,2013-02-25 13:07:00,
2013-02-25 07:10:00,39.5,24.0,29.91,ENE,64,1.4,4.0,53,-99.99,,,-99.99,WSDL version 423,2013-02-25 13:10:00,
2013-02-25 07:12:00,39.5,24.0,29.91,North,6,1.6,3.4,54,-99.99,,,-99.99,WSDL version 423,2013-02-25 13:12:00,
2013-02-25 07:13:00,39.5,24.0,29.91,NE,45,1.5,3.4,53,-99.99,,,-99.99,WSDL version 423,2013-02-25 13:13:00,
2013-02-25 07:15:00,39.6,24.1,29.91,NE,34,1.2,3.4,53,-99.99,,,-99.99,WSDL version 423,2013-02-25 13:15:00,
2013-02-25 07:18:00,39.7,24.3,29.91,ENE,75,1.3,4.0,53,-99.99,,,-99.99,WSDL version 423,2013-02-25 13:18:00,
2013-02-25 07:19:00,39.8,24.3,29.91,NE,56,1.8,4.0,53,-99.99,,,-99.99,WSDL version 423,2013-02-25 13:19:00,
2013-02-25 07:21:00,39.9,24.4,29.91,East,95,2.5,4.3,53,-99.99,,,-99.99,WSDL version 423,2013-02-25 13:21:00,
2013-02-25 07:23:00,40.1,24.5,29.91,NE,53,2.2,4.3,53,-99.99,,,-99.99,WSDL version 423,2013-02-25 13:23:00,
2013-02-25 07:27:00,40.7,25.0,29.91,East,86,2.5,5.4,53,-99.99,,,-99.99,WSDL version 423,2013-02-25 13:27:00,
2013-02-25 07:28:00,40.8,25.1,29.91,East,90,3.1,5.4,52,-99.99,,,-99.99,WSDL version 423,2013-02-25 13:28:00,
2013-02-25 07:29:00,40.9,25.1,29.91,East,83,3.1,5.4,52,-99.99,,,-99.99,WSDL version 423,2013-02-25 13:29:00,
2013-02-25 07:32:00,40.9,24.5,29.91,NW,309,2.3,5.6,51,-99.99,,,-99.99,WSDL version 423,2013-02-25 13:32:00,
2013-02-25 07:35:00,40.9,24.1,29.91,ENE,72,2.2,5.6,51,-99.99,,,-99.99,WSDL version 423,2013-02-25 13:35:00,
2013-02-25 07:36:00,41.0,24.0,29.91,ENE,64,2.2,5.6,50,-99.99,,,-99.99,WSDL version 423,2013-02-25 13:36:00,
2013-02-25 07:37:00,41.0,23.9,29.91,East,86,2.1,5.6,50,-99.99,,,-99.99,WSDL version 423,2013-02-25 13:37:00,
2013-02-25 07:40:00,41.2,23.5,29.91,East,99,3.4,6.0,49,-99.99,,,-99.99,WSDL version 423,2013-02-25 13:40:00,
2013-02-25 07:42:00,41.3,23.4,29.91,East,79,3.3,6.0,48,-99.99,,,-99.99,WSDL version 423,2013-02-25 13:42:00,
2013-02-25 07:43:00,41.4,23.4,29.91,East,96,3.9,6.0,48,-99.99,,,-99.99,WSDL version 423,2013-02-25 13:43:00,
2013-02-25 07:46:00,41.7,23.1,29.91,ESE,113,3.4,6.0,47,-99.99,,,-99.99,WSDL version 423,2013-02-25 13:46:00,
2013-02-25 07:49:00,41.8,23.3,29.91,East,101,1.6,5.8,48,-99.99,,,-99.99,WSDL version 423,2013-02-25 13:49:00,
2013-02-25 07:50:00,41.9,23.5,29.91,East,79,2.0,5.8,48,-99.99,,,-99.99,WSDL version 423,2013-02-25 13:50:00,
2013-02-25 07:54:00,42.0,23.5,29.91,NE,53,2.0,4.9,47,-99.99,,,-99.99,WSDL version 423,2013-02-25 13:54:00,
2013-02-25 07:55:00,42.0,23.4,29.91,East,90,2.5,4.0,47,-99.99,,,-99.99,WSDL version 423,2013-02-25 13:55:00,
2013-02-25 07:57:00,42.0,23.0,29.91,ESE,113,2.8,6.3,46,-99.99,,,-99.99,WSDL version 423,2013-02-25 13:57:00,
2013-02-25 07:59:00,42.0,22.9,29.91,ENE,75,2.8,6.3,46,-99.99,,,-99.99,WSDL version 423,2013-02-25 13:59:00,
2013-02-25 08:00:00,42.0,22.8,29.91,East,94,2.8,6.3,46,-99.99,,,-99.99,WSDL version 423,2013-02-25 14:00:00,
2013-02-25 08:03:00,42.0,22.7,29.88,ENE,68,2.9,6.3,46,-99.99,,,-99.99,WSDL version 423,2013-02-25 14:03:00,
2013-02-25 08:04:00,42.0,22.9,29.88,ENE,68,2.6,6.3,47,-99.99,,,-99.99,WSDL version 423,2013-02-25 14:04:00,
2013-02-25 08:05:00,42.2,23.1,29.88,ENE,77,2.0,6.3,46,-99.99,,,-99.99,WSDL version 423,2013-02-25 14:05:00,
2013-02-25 08:10:00,43.2,24.2,29.88,NE,53,1.4,4.3,46,-99.99,,,-99.99,WSDL version 423,2013-02-25 14:10:00,
2013-02-25 08:11:00,43.3,24.2,29.88,SE,135,1.8,4.3,46,-99.99,,,-99.99,WSDL version 423,2013-02-25 14:11:00,
2013-02-25 08:12:00,43.6,24.4,29.88,South,188,2.0,4.3,46,-99.99,,,-99.99,WSDL version 423,2013-02-25 14:12:00,
2013-02-25 08:14:00,43.9,24.5,29.88,East,84,2.0,4.3,46,-99.99,,,-99.99,WSDL version 423,2013-02-25 14:14:00,
2013-02-25 08:15:00,44.1,24.6,29.88,ESE,119,2.1,4.3,45,-99.99,,,-99.99,WSDL version 423,2013-02-25 14:15:00,
2013-02-25 08:18:00,44.5,24.6,29.88,ESE,113,3.4,8.7,44,-99.99,,,-99.99,WSDL version 423,2013-02-25 14:18:00,
2013-02-25 08:23:00,45.3,24.9,29.88,ENE,62,2.7,8.7,44,-99.99,,,-99.99,WSDL version 423,2013-02-25 14:23:00,
2013-02-25 08:27:00,45.9,25.2,29.88,East,94,3.1,8.7,43,-99.99,,,-99.99,WSDL version 423,2013-02-25 14:27:00,
2013-02-25 08:32:00,46.6,25.5,29.88,SE,124,2.3,6.0,43,-99.99,,,-99.99,WSDL version 423,2013-02-25 14:32:00,
2013-02-25 08:34:00,47.0,25.7,29.88,ESE,113,2.7,6.0,42,-99.99,,,-99.99,WSDL version 423,2013-02-25 14:34:00,
2013-02-25 08:37:00,47.7,26.0,29.88,East,101,2.1,3.8,42,-99.99,,,-99.99,WSDL version 423,2013-02-25 14:37:00,
2013-02-25 08:39:00,48.1,26.3,29.88,South,169,1.1,3.6,42,-99.99,,,-99.99,WSDL version 423,2013-02-25 14:39:00,
2013-02-25 08:42:00,48.8,26.4,29.88,SSE,158,3.1,3.6,41,-99.99,,,-99.99,WSDL version 423,2013-02-25 14:42:00,
2013-02-25 08:43:00,49.0,26.1,29.88,SE,143,2.5,3.6,39,-99.99,,,-99.99,WSDL version 423,2013-02-25 14:43:00,
2013-02-25 08:47:00,49.5,25.3,29.91,SE,135,3.8,7.4,39,-99.99,,,-99.99,WSDL version 423,2013-02-25 14:47:00,
2013-02-25 08:49:00,49.8,25.7,29.91,SE,131,2.0,7.4,39,-99.99,,,-99.99,WSDL version 423,2013-02-25 14:49:00,
2013-02-25 08:50:00,50.1,26.0,29.91,South,180,2.0,7.4,38,-99.99,,,-99.99,WSDL version 423,2013-02-25 14:50:00,
2013-02-25 08:52:00,50.5,26.1,29.91,North,0,0.0,7.4,38,-99.99,,,-99.99,WSDL version 423,2013-02-25 14:52:00,
2013-02-25 08:54:00,50.9,26.1,29.91,South,180,1.9,7.4,37,-99.99,,,-99.99,WSDL version 423,2013-02-25 14:54:00,
2013-02-25 08:55:00,51.2,26.3,29.91,East,101,1.9,6.0,38,-99.99,,,-99.99,WSDL version 423,2013-02-25 14:55:00,
2013-02-25 09:00:00,51.9,26.0,29.91,SE,135,1.1,4.0,36,-99.99,,,-99.99,WSDL version 423,2013-02-25 15:00:00,
2013-02-25 09:01:00,52.0,26.0,29.88,SE,135,1.3,4.0,36,-99.99,,,-99.99,WSDL version 423,2013-02-25 15:01:00,
2013-02-25 09:04:00,52.1,25.9,29.88,SSE,158,0.9,4.0,36,-99.99,,,-99.99,WSDL version 423,2013-02-25 15:04:00,
2013-02-25 09:05:00,52.1,26.0,29.88,SSE,158,0.9,4.0,36,-99.99,,,-99.99,WSDL version 423,2013-02-25 15:05:00,
2013-02-25 09:08:00,52.4,26.1,29.88,SE,146,1.1,2.5,35,-99.99,,,-99.99,WSDL version 423,2013-02-25 15:08:00,
2013-02-25 09:10:00,52.4,25.9,29.88,East,90,2.7,6.5,35,-99.99,,,-99.99,WSDL version 423,2013-02-25 15:10:00,
2013-02-25 09:13:00,52.2,25.4,29.88,SE,135,2.7,6.5,35,-99.99,,,-99.99,WSDL version 423,2013-02-25 15:13:00,
2013-02-25 09:14:00,52.0,25.2,29.88,SE,135,1.3,6.5,35,-99.99,,,-99.99,WSDL version 423,2013-02-25 15:14:00,
2013-02-25 09:16:00,51.8,25.0,29.88,ESE,113,2.0,6.5,35,-99.99,,,-99.99,WSDL version 423,2013-02-25 15:16:00,
2013-02-25 09:18:00,51.5,24.8,29.88,North,0,0.0,6.5,35,-99.99,,,-99.99,WSDL version 423,2013-02-25 15:18:00,
2013-02-25 09:21:00,51.4,24.7,29.88,East,86,2.1,5.8,35,-99.99,,,-99.99,WSDL version 423,2013-02-25 15:21:00,
2013-02-25 09:25:00,52.1,25.3,29.88,ENE,68,2.6,7.4,35,-99.99,,,-99.99,WSDL version 423,2013-02-25 15:25:00,
2013-02-25 09:27:00,52.3,25.3,29.88,ENE,61,3.7,8.7,34,-99.99,,,-99.99,WSDL version 423,2013-02-25 15:27:00,
2013-02-25 09:31:00,52.4,24.8,29.88,ESE,117,4.1,8.7,34,-99.99,,,-99.99,WSDL version 423,2013-02-25 15:31:00,
2013-02-25 09:32:00,52.4,24.9,29.88,SE,128,4.3,8.7,34,-99.99,,,-99.99,WSDL version 423,2013-02-25 15:32:00,
2013-02-25 09:36:00,52.4,24.8,29.88,ESE,120,3.7,7.2,34,-99.99,,,-99.99,WSDL version 423,2013-02-25 15:36:00,
2013-02-25 09:37:00,52.3,24.8,29.88,East,101,3.4,7.2,34,-99.99,,,-99.99,WSDL version 423,2013-02-25 15:37:00,
2013-02-25 09:41:00,52.4,24.8,29.88,North,360,1.7,7.2,33,-99.99,,,-99.99,WSDL version 423,2013-02-25 15:41:00,
2013-02-25 09:42:00,52.5,24.7,29.88,NE,45,3.1,7.2,33,-99.99,,,-99.99,WSDL version 423,2013-02-25 15:42:00,
2013-02-25 09:43:00,52.7,24.6,29.88,East,98,3.5,7.2,33,-99.99,,,-99.99,WSDL version 423,2013-02-25 15:43:00,
2013-02-25 09:46:00,52.9,24.6,29.88,East,90,2.4,8.1,33,-99.99,,,-99.99,WSDL version 423,2013-02-25 15:46:00,
2013-02-25 09:47:00,53.0,24.7,29.88,ESE,107,2.5,8.1,33,-99.99,,,-99.99,WSDL version 423,2013-02-25 15:47:00,
2013-02-25 09:50:00,53.7,25.4,29.88,ESE,113,1.3,8.1,34,-99.99,,,-99.99,WSDL version 423,2013-02-25 15:50:00,
2013-02-25 09:52:00,54.3,25.9,29.88,East,90,2.3,8.1,33,-99.99,,,-99.99,WSDL version 423,2013-02-25 15:52:00,
2013-02-25 09:54:00,55.0,26.5,29.88,East,90,1.4,8.1,33,-99.99,,,-99.99,WSDL version 423,2013-02-25 15:54:00,
2013-02-25 09:55:00,55.5,26.8,29.88,SE,146,2.7,8.1,33,-99.99,,,-99.99,WSDL version 423,2013-02-25 15:55:00,
2013-02-25 09:57:00,55.9,27.2,29.88,ENE,68,2.4,5.4,33,-99.99,,,-99.99,WSDL version 423,2013-02-25 15:57:00,
2013-02-25 09:59:00,56.2,27.2,29.88,East,101,3.2,5.8,32,-99.99,,,-99.99,WSDL version 423,2013-02-25 15:59:00,
2013-02-25 10:00:00,56.3,27.2,29.88,East,101,2.6,5.8,32,-99.99,,,-99.99,WSDL version 423,2013-02-25 16:00:00,
2013-02-25 10:03:00,56.5,27.0,29.88,ESE,113,2.6,6.0,32,-99.99,,,-99.99,WSDL version 423,2013-02-25 16:03:00,
2013-02-25 10:08:00,57.2,27.6,29.88,NE,45,4.3,6.0,32,-99.99,,,-99.99,WSDL version 423,2013-02-25 16:08:00,
2013-02-25 10:13:00,58.1,28.2,29.88,SE,124,1.8,5.8,32,-99.99,,,-99.99,WSDL version 423,2013-02-25 16:13:00,
2013-02-25 10:16:00,58.3,28.1,29.88,SE,128,2.7,5.6,31,-99.99,,,-99.99,WSDL version 423,2013-02-25 16:16:00,
2013-02-25 10:18:00,58.5,28.0,29.88,ENE,68,2.2,5.8,31,-99.99,,,-99.99,WSDL version 423,2013-02-25 16:18:00,
2013-02-25 10:19:00,58.5,28.0,29.88,ESE,105,3.8,5.8,31,-99.99,,,-99.99,WSDL version 423,2013-02-25 16:19:00,
2013-02-25 10:24:00,59.2,28.6,29.88,East,101,1.0,5.8,31,-99.99,,,-99.99,WSDL version 423,2013-02-25 16:24:00,
2013-02-25 10:26:00,59.3,28.6,29.88,NNE,15,2.2,5.8,31,-99.99,,,-99.99,WSDL version 423,2013-02-25 16:26:00,
2013-02-25 10:29:00,59.8,29.1,29.88,North,11,2.5,6.3,31,-99.99,,,-99.99,WSDL version 423,2013-02-25 16:29:00,
2013-02-25 10:31:00,60.0,29.3,29.88,West,263,3.0,6.3,31,-99.99,,,-99.99,WSDL version 423,2013-02-25 16:31:00,
2013-02-25 10:35:00,60.1,29.1,29.88,SE,131,2.7,6.3,30,-99.99,,,-99.99,WSDL version 423,2013-02-25 16:35:00,
2013-02-25 10:40:00,60.2,28.9,29.88,SE,128,4.3,6.5,30,-99.99,,,-99.99,WSDL version 423,2013-02-25 16:40:00,
2013-02-25 10:43:00,60.5,29.0,29.88,ESE,120,2.8,6.5,30,-99.99,,,-99.99,WSDL version 423,2013-02-25 16:43:00,
2013-02-25 10:45:00,60.6,29.0,29.88,East,96,3.0,6.5,30,-99.99,,,-99.99,WSDL version 423,2013-02-25 16:45:00,
2013-02-25 10:46:00,60.6,29.0,29.85,ESE,104,2.7,6.5,30,-99.99,,,-99.99,WSDL version 423,2013-02-25 16:46:00,
2013-02-25 10:48:00,60.6,29.0,29.85,North,0,0.0,6.5,30,-99.99,,,-99.99,WSDL version 423,2013-02-25 16:48:00,
2013-02-25 10:51:00,60.6,29.0,29.85,NNE,23,2.5,6.3,30,-99.99,,,-99.99,WSDL version 423,2013-02-25 16:51:00,
2013-02-25 10:53:00,60.7,29.1,29.85,NE,34,2.2,6.3,30,-99.99,,,-99.99,WSDL version 423,2013-02-25 16:53:00,
2013-02-25 10:56:00,60.9,29.3,29.85,East,83,2.0,2.5,30,-99.99,,,-99.99,WSDL version 423,2013-02-25 16:56:00,
2013-02-25 10:58:00,61.0,29.0,29.85,ESE,104,2.6,2.6,28,-99.99,,,-99.99,WSDL version 423,2013-02-25 16:58:00,
2013-02-25 11:02:00,60.5,27.2,29.85,SW,225,4.0,4.0,28,-99.99,,,-99.99,WSDL version 423,2013-02-25 17:02:00,
2013-02-25 11:04:00,60.5,27.2,29.85,SE,135,2.0,3.8,28,-99.99,,,-99.99,WSDL version 423,2013-02-25 17:04:00,
2013-02-25 11:08:00,61.2,27.9,29.85,East,81,1.9,5.6,28,-99.99,,,-99.99,WSDL version 423,2013-02-25 17:08:00,
2013-02-25 11:09:00,61.3,27.9,29.85,East,86,2.6,6.0,28,-99.99,,,-99.99,WSDL version 423,2013-02-25 17:09:00,
2013-02-25 11:14:00,61.4,28.1,29.85,SE,131,2.8,6.0,28,-99.99,,,-99.99,WSDL version 423,2013-02-25 17:14:00,
2013-02-25 11:16:00,61.3,28.0,29.85,SSE,148,1.6,7.2,28,-99.99,,,-99.99,WSDL version 423,2013-02-25 17:16:00,
2013-02-25 11:21:00,61.6,28.2,29.85,ENE,73,3.0,7.2,28,-99.99,,,-99.99,WSDL version 423,2013-02-25 17:21:00,
2013-02-25 11:28:00,61.9,27.8,29.85,East,79,2.9,6.0,28,-99.99,,,-99.99,WSDL version 423,2013-02-25 17:28:00,
2013-02-25 11:31:00,61.5,26.3,29.83,ESE,118,2.2,6.0,28,-99.99,,,-99.99,WSDL version 423,2013-02-25 17:31:00,
2013-02-25 11:33:00,61.5,26.8,29.83,East,81,1.4,6.0,28,-99.99,,,-99.99,WSDL version 423,2013-02-25 17:33:00,
2013-02-25 11:36:00,61.9,28.5,29.83,East,90,1.6,5.6,28,-99.99,,,-99.99,WSDL version 423,2013-02-25 17:36:00,
2013-02-25 11:39:00,62.1,27.3,29.83,East,90,3.6,5.6,25,-99.99,,,-99.99,WSDL version 423,2013-02-25 17:39:00,
2013-02-25 11:44:00,61.8,26.1,29.83,ESE,109,2.4,8.5,27,-99.99,,,-99.99,WSDL version 423,2013-02-25 17:44:00,
2013-02-25 11:45:00,61.9,26.2,29.83,ESE,113,2.2,8.5,25,-99.99,,,-99.99,WSDL version 423,2013-02-25 17:45:00,
2013-02-25 11:50:00,62.2,26.5,29.85,NNW,347,2.8,8.5,25,-99.99,,,-99.99,WSDL version 423,2013-02-25 17:50:00,
2013-02-25 11:51:00,62.2,26.5,29.85,ESE,108,3.7,8.5,25,-99.99,,,-99.99,WSDL version 423,2013-02-25 17:51:00,
2013-02-25 11:53:00,61.9,25.7,29.85,SE,124,1.7,8.5,25,-99.99,,,-99.99,WSDL version 423,2013-02-25 17:53:00,
2013-02-25 11:55:00,61.8,25.6,29.85,East,83,1.6,8.5,25,-99.99,,,-99.99,WSDL version 423,2013-02-25 17:55:00,
2013-02-25 12:00:00,61.6,25.5,29.85,SSE,150,1.2,4.7,25,-99.99,,,-99.99,WSDL version 423,2013-02-25 18:00:00,
2013-02-25 12:05:00,61.5,25.4,29.80,North,0,0.0,4.0,25,-99.99,,,-99.99,WSDL version 423,2013-02-25 18:05:00,
2013-02-25 12:07:00,61.4,25.3,29.80,SE,143,1.6,4.0,25,-99.99,,,-99.99,WSDL version 423,2013-02-25 18:07:00,
2013-02-25 12:12:00,61.6,25.5,29.80,ESE,113,1.2,6.3,25,-99.99,,,-99.99,WSDL version 423,2013-02-25 18:12:00,
2013-02-25 12:17:00,62.4,26.1,29.80,ESE,117,1.7,6.3,25,-99.99,,,-99.99,WSDL version 423,2013-02-25 18:17:00,
2013-02-25 12:18:00,62.5,26.2,29.80,East,101,2.0,4.0,25,-99.99,,,-99.99,WSDL version 423,2013-02-25 18:18:00,
2013-02-25 12:22:00,63.7,27.2,29.80,ENE,75,1.0,3.4,25,-99.99,,,-99.99,WSDL version 423,2013-02-25 18:22:00,
2013-02-25 12:23:00,63.9,27.4,29.80,West,281,2.9,3.8,25,-99.99,,,-99.99,WSDL version 423,2013-02-25 18:23:00,
2013-02-25 12:28:00,64.4,27.8,29.80,East,79,3.1,3.8,25,-99.99,,,-99.99,WSDL version 423,2013-02-25 18:28:00,
2013-02-25 12:31:00,64.6,28.0,29.80,East,101,2.9,5.4,25,-99.99,,,-99.99,WSDL version 423,2013-02-25 18:31:00,
2013-02-25 12:33:00,64.7,28.1,29.80,ENE,75,4.8,5.8,25,-99.99,,,-99.99,WSDL version 423,2013-02-25 18:33:00,
2013-02-25 12:38:00,64.8,28.2,29.80,NE,45,3.6,8.1,25,-99.99,,,-99.99,WSDL version 423,2013-02-25 18:38:00,
2013-02-25 12:39:00,64.8,28.2,29.80,ESE,105,2.2,8.1,25,-99.99,,,-99.99,WSDL version 423,2013-02-25 18:39:00,
2013-02-25 12:42:00,64.7,28.1,29.80,East,79,3.5,8.1,25,-99.99,,,-99.99,WSDL version 423,2013-02-25 18:42:00,
2013-02-25 12:43:00,64.7,28.1,29.80,ESE,113,3.7,8.1,25,-99.99,,,-99.99,WSDL version 423,2013-02-25 18:43:00,
2013-02-25 12:48:00,64.8,27.5,29.77,ESE,108,2.1,5.8,22,-99.99,,,-99.99,WSDL version 423,2013-02-25 18:48:00,
2013-02-25 12:49:00,64.9,27.4,29.77,ESE,104,3.3,5.8,24,-99.99,,,-99.99,WSDL version 423,2013-02-25 18:49:00,
2013-02-25 12:53:00,65.1,26.4,29.77,East,90,3.5,6.3,24,-99.99,,,-99.99,WSDL version 423,2013-02-25 18:53:00,
2013-02-25 12:54:00,65.1,26.4,29.77,ESE,113,2.5,6.3,24,-99.99,,,-99.99,WSDL version 423,2013-02-25 18:54:00,
2013-02-25 12:57:00,65.0,26.1,29.77,ENE,68,4.0,9.6,22,-99.99,,,-99.99,WSDL version 423,2013-02-25 18:57:00,
2013-02-25 12:59:00,65.0,25.3,29.77,East,101,3.0,9.6,22,-99.99,,,-99.99,WSDL version 423,2013-02-25 18:59:00,
2013-02-25 13:02:00,65.1,25.3,29.77,SE,146,2.6,9.6,22,-99.99,,,-99.99,WSDL version 423,2013-02-25 19:02:00,
2013-02-25 13:05:00,64.8,25.1,29.77,SE,128,3.6,9.6,22,-99.99,,,-99.99,WSDL version 423,2013-02-25 19:05:00,
2013-02-25 13:08:00,64.6,25.4,29.77,SSE,158,1.2,6.5,25,-99.99,,,-99.99,WSDL version 423,2013-02-25 19:08:00,
2013-02-25 13:10:00,64.6,25.9,29.77,ESE,113,1.3,6.5,22,-99.99,,,-99.99,WSDL version 423,2013-02-25 19:10:00,
2013-02-25 13:13:00,64.9,25.8,29.77,NE,56,3.8,6.5,22,-99.99,,,-99.99,WSDL version 423,2013-02-25 19:13:00,
2013-02-25 13:17:00,64.9,25.2,29.74,East,90,4.7,7.4,22,-99.99,,,-99.99,WSDL version 423,2013-02-25 19:17:00,
2013-02-25 13:19:00,64.7,25.0,29.74,SSE,158,3.8,7.4,22,-99.99,,,-99.99,WSDL version 423,2013-02-25 19:19:00,
2013-02-25 13:24:00,64.4,24.8,29.74,NNE,30,2.5,7.2,22,-99.99,,,-99.99,WSDL version 423,2013-02-25 19:24:00,
2013-02-25 13:26:00,64.1,24.5,29.74,NE,34,2.8,7.2,22,-99.99,,,-99.99,WSDL version 423,2013-02-25 19:26:00,
2013-02-25 13:31:00,63.8,24.3,29.77,NE,45,1.3,5.6,22,-99.99,,,-99.99,WSDL version 423,2013-02-25 19:31:00,
2013-02-25 13:35:00,63.9,25.9,29.77,East,99,1.3,5.6,25,-99.99,,,-99.99,WSDL version 423,2013-02-25 19:35:00,
2013-02-25 13:40:00,63.9,24.8,29.77,ENE,68,3.5,5.8,22,-99.99,,,-99.99,WSDL version 423,2013-02-25 19:40:00,
2013-02-25 13:45:00,64.0,24.9,29.77,ESE,107,2.2,5.8,24,-99.99,,,-99.99,WSDL version 423,2013-02-25 19:45:00,
2013-02-25 13:47:00,64.1,25.0,29.74,ESE,105,1.8,7.4,22,-99.99,,,-99.99,WSDL version 423,2013-02-25 19:47:00,
2013-02-25 13:50:00,64.2,24.6,29.74,ESE,113,0.0,7.4,22,-99.99,,,-99.99,WSDL version 423,2013-02-25 19:50:00,
2013-02-25 13:52:00,64.1,24.5,29.74,East,93,2.8,7.4,22,-99.99,,,-99.99,WSDL version 423,2013-02-25 19:52:00,
2013-02-25 13:53:00,64.0,25.0,29.74,North,360,2.3,7.4,22,-99.99,,,-99.99,WSDL version 423,2013-02-25 19:53:00,
2013-02-25 13:56:00,63.9,25.5,29.74,ENE,68,1.3,7.4,22,-99.99,,,-99.99,WSDL version 423,2013-02-25 19:56:00,
2013-02-25 13:57:00,63.8,25.3,29.74,NE,45,2.3,8.1,22,-99.99,,,-99.99,WSDL version 423,2013-02-25 19:57:00,
2013-02-25 14:02:00,63.8,24.2,29.74,SE,144,2.9,8.1,22,-99.99,,,-99.99,WSDL version 423,2013-02-25 20:02:00,
2013-02-25 14:03:00,63.8,24.3,29.74,NNE,26,3.2,8.1,22,-99.99,,,-99.99,WSDL version 423,2013-02-25 20:03:00,
2013-02-25 14:09:00,64.4,25.7,29.74,SE,135,1.3,5.8,22,-99.99,,,-99.99,WSDL version 423,2013-02-25 20:09:00,
2013-02-25 14:11:00,64.3,25.3,29.74,East,99,2.6,5.8,22,-99.99,,,-99.99,WSDL version 423,2013-02-25 20:11:00,
2013-02-25 14:16:00,63.9,24.3,29.71,SE,131,3.5,6.0,22,-99.99,,,-99.99,WSDL version 423,2013-02-25 20:16:00,
2013-02-25 14:17:00,63.8,24.3,29.71,SSE,149,3.4,6.0,22,-99.99,,,-99.99,WSDL version 423,2013-02-25 20:17:00,
2013-02-25 14:21:00,63.8,24.3,29.71,ENE,75,1.4,6.0,22,-99.99,,,-99.99,WSDL version 423,2013-02-25 20:21:00,
2013-02-25 14:22:00,64.0,24.4,29.71,ENE,68,2.3,6.0,22,-99.99,,,-99.99,WSDL version 423,2013-02-25 20:22:00,
2013-02-25 14:27:00,64.8,25.1,29.71,East,79,3.6,9.6,22,-99.99,,,-99.99,WSDL version 423,2013-02-25 20:27:00,
2013-02-25 14:29:00,64.9,25.2,29.71,SE,124,2.7,9.6,22,-99.99,,,-99.99,WSDL version 423,2013-02-25 20:29:00,
2013-02-25 14:32:00,64.6,24.9,29.71,East,95,2.3,9.6,22,-99.99,,,-99.99,WSDL version 423,2013-02-25 20:32:00,
2013-02-25 14:34:00,64.3,24.7,29.71,ESE,105,2.3,9.6,22,-99.99,,,-99.99,WSDL version 423,2013-02-25 20:34:00,
2013-02-25 14:37:00,64.2,24.6,29.71,SSE,158,2.7,5.4,22,-99.99,,,-99.99,WSDL version 423,2013-02-25 20:37:00,
2013-02-25 14:40:00,64.6,24.9,29.71,East,90,2.1,5.4,22,-99.99,,,-99.99,WSDL version 423,2013-02-25 20:40:00,
2013-02-25 14:43:00,64.8,25.1,29.71,ENE,68,4.3,5.6,22,-99.99,,,-99.99,WSDL version 423,2013-02-25 20:43:00,
2013-02-25 14:46:00,65.0,25.2,29.71,ESE,113,1.3,5.6,22,-99.99,,,-99.99,WSDL version 423,2013-02-25 20:46:00,
2013-02-25 14:49:00,65.1,25.3,29.71,NNW,345,1.9,6.0,22,-99.99,,,-99.99,WSDL version 423,2013-02-25 20:49:00,
2013-02-25 14:51:00,65.1,25.8,29.71,East,79,2.5,6.0,22,-99.99,,,-99.99,WSDL version 423,2013-02-25 20:51:00,
2013-02-25 14:55:00,64.9,25.2,29.71,NNE,23,3.2,6.0,22,-99.99,,,-99.99,WSDL version 423,2013-02-25 20:55:00,
2013-02-25 14:56:00,64.8,25.1,29.71,ENE,68,3.4,6.0,22,-99.99,,,-99.99,WSDL version 423,2013-02-25 20:56:00,
2013-02-25 15:00:00,64.8,25.1,29.71,ENE,62,2.6,5.6,22,-99.99,,,-99.99,WSDL version 423,2013-02-25 21:00:00,
2013-02-25 15:02:00,64.7,25.0,29.68,ENE,64,3.1,5.8,22,-99.99,,,-99.99,WSDL version 423,2013-02-25 21:02:00,
2013-02-25 15:05:00,64.6,24.9,29.68,East,101,2.3,5.8,22,-99.99,,,-99.99,WSDL version 423,2013-02-25 21:05:00,
2013-02-25 15:09:00,64.4,24.7,29.68,ENE,68,3.2,5.8,22,-99.99,,,-99.99,WSDL version 423,2013-02-25 21:09:00,
2013-02-25 15:13:00,64.3,24.7,29.68,ESE,113,2.7,7.4,22,-99.99,,,-99.99,WSDL version 423,2013-02-25 21:13:00,
2013-02-25 15:18:00,64.1,24.5,29.68,SE,146,2.2,7.4,22,-99.99,,,-99.99,WSDL version 423,2013-02-25 21:18:00,
2013-02-25 15:20:00,64.0,24.4,29.68,ENE,68,2.6,7.4,22,-99.99,,,-99.99,WSDL version 423,2013-02-25 21:20:00,
2013-02-25 15:21:00,64.0,24.4,29.68,WNW,300,3.7,7.4,22,-99.99,,,-99.99,WSDL version 423,2013-02-25 21:21:00,
2013-02-25 15:25:00,63.9,24.9,29.68,SSE,158,2.7,5.4,22,-99.99,,,-99.99,WSDL version 423,2013-02-25 21:25:00,
2013-02-25 15:28:00,63.7,24.2,29.68,East,84,2.1,5.4,22,-99.99,,,-99.99,WSDL version 423,2013-02-25 21:28:00,
2013-02-25 15:34:00,63.0,24.9,29.68,East,83,2.2,6.0,23,-99.99,,,-99.99,WSDL version 423,2013-02-25 21:34:00,
2013-02-25 15:35:00,62.9,25.0,29.68,SE,141,2.5,6.0,23,-99.99,,,-99.99,WSDL version 423,2013-02-25 21:35:00,
2013-02-25 15:40:00,62.6,24.3,29.68,ENE,59,2.0,6.3,23,-99.99,,,-99.99,WSDL version 423,2013-02-25 21:40:00,
2013-02-25 15:42:00,62.5,24.2,29.68,North,349,3.5,6.3,23,-99.99,,,-99.99,WSDL version 423,2013-02-25 21:42:00,
2013-02-25 15:45:00,62.3,24.1,29.68,East,101,2.7,6.3,23,-99.99,,,-99.99,WSDL version 423,2013-02-25 21:45:00,
2013-02-25 15:47:00,62.2,23.9,29.68,ENE,68,3.6,7.6,23,-99.99,,,-99.99,WSDL version 423,2013-02-25 21:47:00,
2013-02-25 15:50:00,62.0,23.8,29.68,NW,323,2.6,7.6,23,-99.99,,,-99.99,WSDL version 423,2013-02-25 21:50:00,
2013-02-25 15:52:00,62.0,23.8,29.68,SSW,203,2.7,7.6,23,-99.99,,,-99.99,WSDL version 423,2013-02-25 21:52:00,
2013-02-25 15:53:00,62.0,23.8,29.68,North,8,2.6,7.6,23,-99.99,,,-99.99,WSDL version 423,2013-02-25 21:53:00,
2013-02-25 15:55:00,62.0,23.8,29.68,NNW,332,2.3,7.6,23,-99.99,,,-99.99,WSDL version 423,2013-02-25 21:55:00,
2013-02-25 16:00:00,61.6,23.8,29.68,NE,54,2.7,6.9,23,-99.99,,,-99.99,WSDL version 423,2013-02-25 22:00:00,
2013-02-25 16:05:00,61.2,23.1,29.65,SW,214,2.5,7.2,23,-99.99,,,-99.99,WSDL version 423,2013-02-25 22:05:00,
2013-02-25 16:06:00,61.1,23.0,29.65,NE,45,3.0,7.2,23,-99.99,,,-99.99,WSDL version 423,2013-02-25 22:06:00,
2013-02-25 16:11:00,60.8,23.1,29.65,NNE,23,2.8,7.2,23,-99.99,,,-99.99,WSDL version 423,2013-02-25 22:11:00,
2013-02-25 16:13:00,60.7,23.7,29.65,NNW,338,2.7,5.6,25,-99.99,,,-99.99,WSDL version 423,2013-02-25 22:13:00,
2013-02-25 16:17:00,60.5,24.5,29.65,North,351,1.7,4.7,25,-99.99,,,-99.99,WSDL version 423,2013-02-25 22:17:00,
2013-02-25 16:21:00,60.3,24.4,29.65,East,90,2.2,4.3,25,-99.99,,,-99.99,WSDL version 423,2013-02-25 22:21:00,
2013-02-25 16:22:00,60.3,24.3,29.65,NE,38,2.5,4.3,25,-99.99,,,-99.99,WSDL version 423,2013-02-25 22:22:00,
2013-02-25 16:27:00,60.0,24.1,29.65,NNE,17,1.8,3.6,25,-99.99,,,-99.99,WSDL version 423,2013-02-25 22:27:00,
2013-02-25 16:28:00,60.0,24.1,29.65,NE,56,1.6,3.6,25,-99.99,,,-99.99,WSDL version 423,2013-02-25 22:28:00,
2013-02-25 16:32:00,59.7,24.0,29.65,NNE,23,2.5,3.4,26,-99.99,,,-99.99,WSDL version 423,2013-02-25 22:32:00,
2013-02-25 16:34:00,59.6,24.2,29.65,East,90,3.4,3.4,26,-99.99,,,-99.99,WSDL version 423,2013-02-25 22:34:00,
2013-02-25 16:37:00,59.4,24.5,29.65,East,95,2.6,4.5,26,-99.99,,,-99.99,WSDL version 423,2013-02-25 22:37:00,
2013-02-25 16:40:00,59.3,24.4,29.65,ENE,62,4.0,5.8,26,-99.99,,,-99.99,WSDL version 423,2013-02-25 22:40:00,
2013-02-25 16:43:00,59.2,24.3,29.65,East,96,3.1,6.5,26,-99.99,,,-99.99,WSDL version 423,2013-02-25 22:43:00,
2013-02-25 16:45:00,59.1,24.3,29.65,East,90,3.7,6.5,26,-99.99,,,-99.99,WSDL version 423,2013-02-25 22:45:00,
2013-02-25 16:48:00,59.0,24.2,29.62,North,0,0.0,7.8,26,-99.99,,,-99.99,WSDL version 423,2013-02-25 22:48:00,
2013-02-25 16:50:00,58.9,24.1,29.62,ENE,75,3.4,7.8,26,-99.99,,,-99.99,WSDL version 423,2013-02-25 22:50:00,
2013-02-25 16:53:00,58.8,24.0,29.62,East,101,3.8,7.8,26,-99.99,,,-99.99,WSDL version 423,2013-02-25 22:53:00,
2013-02-25 16:55:00,58.7,23.9,29.62,NW,315,4.0,7.8,26,-99.99,,,-99.99,WSDL version 423,2013-02-25 22:55:00,
2013-02-25 17:00:00,58.5,23.7,29.62,NNE,23,2.4,6.9,26,-99.99,,,-99.99,WSDL version 423,2013-02-25 23:00:00,
2013-02-25 17:02:00,58.4,23.7,29.62,SE,135,2.7,6.9,26,-99.99,,,-99.99,WSDL version 423,2013-02-25 23:02:00,
2013-02-25 17:07:00,58.3,23.6,29.62,NW,323,2.4,4.9,26,-99.99,,,-99.99,WSDL version 423,2013-02-25 23:07:00,
2013-02-25 17:12:00,58.2,23.5,29.62,NNE,17,2.1,4.0,26,-99.99,,,-99.99,WSDL version 423,2013-02-25 23:12:00,
2013-02-25 17:17:00,57.9,23.3,29.62,West,270,3.8,4.0,26,-99.99,,,-99.99,WSDL version 423,2013-02-25 23:17:00,
2013-02-25 17:20:00,57.8,24.0,29.62,SE,124,3.4,4.3,29,-99.99,,,-99.99,WSDL version 423,2013-02-25 23:20:00,
2013-02-25 17:25:00,57.7,25.7,29.62,South,173,2.3,4.9,29,-99.99,,,-99.99,WSDL version 423,2013-02-25 23:25:00,
2013-02-25 17:26:00,57.7,25.7,29.62,ESE,105,2.0,4.9,29,-99.99,,,-99.99,WSDL version 423,2013-02-25 23:26:00,
2013-02-25 17:30:00,57.5,25.5,29.62,ESE,113,1.3,7.6,29,-99.99,,,-99.99,WSDL version 423,2013-02-25 23:30:00,
2013-02-25 17:32:00,57.4,25.4,29.62,East,101,2.5,7.6,29,-99.99,,,-99.99,WSDL version 423,2013-02-25 23:32:00,
2013-02-25 17:37:00,57.2,25.3,29.62,ENE,63,4.3,7.6,29,-99.99,,,-99.99,WSDL version 423,2013-02-25 23:37:00,
2013-02-25 17:39:00,57.2,25.2,29.62,ENE,68,3.6,7.6,29,-99.99,,,-99.99,WSDL version 423,2013-02-25 23:39:00,
2013-02-25 17:42:00,57.2,25.2,29.62,North,11,2.9,5.8,29,-99.99,,,-99.99,WSDL version 423,2013-02-25 23:42:00,
2013-02-25 17:44:00,57.2,25.2,29.62,East,90,2.2,5.4,29,-99.99,,,-99.99,WSDL version 423,2013-02-25 23:44:00,
2013-02-25 17:49:00,57.1,25.2,29.62,East,98,3.3,4.9,29,-99.99,,,-99.99,WSDL version 423,2013-02-25 23:49:00,
2013-02-25 17:51:00,57.1,25.7,29.62,North,11,2.1,4.9,31,-99.99,,,-99.99,WSDL version 423,2013-02-25 23:51:00,
2013-02-25 17:53:00,57.1,26.4,29.62,ENE,68,2.7,4.9,31,-99.99,,,-99.99,WSDL version 423,2013-02-25 23:53:00,
2013-02-25 17:54:00,57.1,26.7,29.62,East,96,3.4,4.9,31,-99.99,,,-99.99,WSDL version 423,2013-02-25 23:54:00,
2013-02-25 17:56:00,57.0,26.7,29.62,ENE,68,2.2,4.3,31,-99.99,,,-99.99,WSDL version 423,2013-02-25 23:56:00,
2013-02-25 18:00:00,57.0,26.7,29.62,NE,34,2.7,5.4,31,-99.99,,,-99.99,WSDL version 423,2013-02-26 00:00:00,
2013-02-25 18:02:00,56.9,26.6,29.62,East,83,3.0,5.4,31,-99.99,,,-99.99,WSDL version 423,2013-02-26 00:02:00,
2013-02-25 18:07:00,56.8,26.5,29.62,South,191,3.2,4.3,31,-99.99,,,-99.99,WSDL version 423,2013-02-26 00:07:00,
2013-02-25 18:08:00,56.8,26.5,29.62,NE,56,3.2,4.3,31,-99.99,,,-99.99,WSDL version 423,2013-02-26 00:08:00,
2013-02-25 18:13:00,56.9,26.6,29.62,ESE,105,2.5,4.3,31,-99.99,,,-99.99,WSDL version 423,2013-02-26 00:13:00,
2013-02-25 18:17:00,56.7,26.5,29.62,NE,53,2.5,3.6,31,-99.99,,,-99.99,WSDL version 423,2013-02-26 00:17:00,
2013-02-25 18:18:00,56.7,26.4,29.62,ENE,68,2.2,3.6,31,-99.99,,,-99.99,WSDL version 423,2013-02-26 00:18:00,
2013-02-25 18:22:00,56.6,26.4,29.62,North,5,2.9,4.0,31,-99.99,,,-99.99,WSDL version 423,2013-02-26 00:22:00,
2013-02-25 18:23:00,56.6,26.4,29.62,NNE,23,2.8,6.0,31,-99.99,,,-99.99,WSDL version 423,2013-02-26 00:23:00,
2013-02-25 18:27:00,56.6,26.4,29.62,North,349,2.2,6.0,31,-99.99,,,-99.99,WSDL version 423,2013-02-26 00:27:00,
2013-02-25 18:28:00,56.6,26.3,29.62,NNE,15,1.7,6.0,31,-99.99,,,-99.99,WSDL version 423,2013-02-26 00:28:00,
2013-02-25 18:32:00,56.5,26.2,29.62,NNE,23,3.5,6.0,31,-99.99,,,-99.99,WSDL version 423,2013-02-26 00:32:00,
2013-02-25 18:33:00,56.5,26.2,29.62,NE,39,2.5,4.9,31,-99.99,,,-99.99,WSDL version 423,2013-02-26 00:33:00,
2013-02-25 18:37:00,56.3,26.1,29.62,NNW,338,2.5,4.9,31,-99.99,,,-99.99,WSDL version 423,2013-02-26 00:37:00,
2013-02-25 18:38:00,56.3,26.1,29.62,NNW,338,2.3,4.9,31,-99.99,,,-99.99,WSDL version 423,2013-02-26 00:38:00,
2013-02-25 18:42:00,56.3,26.2,29.62,SE,135,2.5,4.9,31,-99.99,,,-99.99,WSDL version 423,2013-02-26 00:42:00,
2013-02-25 18:43:00,56.3,26.2,29.62,East,101,2.0,4.9,31,-99.99,,,-99.99,WSDL version 423,2013-02-26 00:43:00,
2013-02-25 18:48:00,56.3,26.7,29.62,NNE,17,2.5,3.8,32,-99.99,,,-99.99,WSDL version 423,2013-02-26 00:48:00,
2013-02-25 18:49:00,56.3,26.8,29.62,NNE,32,2.2,3.8,32,-99.99,,,-99.99,WSDL version 423,2013-02-26 00:49:00,
2013-02-25 18:53:00,56.1,26.7,29.62,ESE,113,2.5,3.8,32,-99.99,,,-99.99,WSDL version 423,2013-02-26 00:53:00,
2013-02-25 18:54:00,56.1,26.7,29.62,East,98,2.7,4.3,32,-99.99,,,-99.99,WSDL version 423,2013-02-26 00:54:00,
2013-02-25 18:55:00,56.1,26.7,29.62,NE,56,3.1,4.3,32,-99.99,,,-99.99,WSDL version 423,2013-02-26 00:55:00,
2013-02-25 18:59:00,56.3,26.8,29.62,ENE,60,2.2,4.3,32,-99.99,,,-99.99,WSDL version 423,2013-02-26 00:59:00,
2013-02-25 19:02:00,56.2,26.8,29.62,East,90,2.2,4.3,32,-99.99,,,-99.99,WSDL version 423,2013-02-26 01:02:00,
2013-02-25 19:04:00,56.1,26.7,29.62,ESE,113,2.1,4.3,32,-99.99,,,-99.99,WSDL version 423,2013-02-26 01:04:00,
2013-02-25 19:06:00,56.1,26.7,29.62,ESE,117,2.5,6.5,32,-99.99,,,-99.99,WSDL version 423,2013-02-26 01:06:00,
2013-02-25 19:11:00,56.3,26.8,29.62,NW,315,2.9,6.5,32,-99.99,,,-99.99,WSDL version 423,2013-02-26 01:11:00,
2013-02-25 19:13:00,56.3,26.8,29.62,ENE,68,2.2,6.5,32,-99.99,,,-99.99,WSDL version 423,2013-02-26 01:13:00,
2013-02-25 19:18:00,56.1,26.7,29.62,ESE,113,1.8,4.9,32,-99.99,,,-99.99,WSDL version 423,2013-02-26 01:18:00,
2013-02-25 19:20:00,56.1,26.7,29.62,ESE,118,2.2,4.9,32,-99.99,,,-99.99,WSDL version 423,2013-02-26 01:20:00,
2013-02-25 19:23:00,56.1,26.7,29.62,ENE,60,3.7,5.6,32,-99.99,,,-99.99,WSDL version 423,2013-02-26 01:23:00,
2013-02-25 19:28:00,56.1,26.7,29.62,East,90,3.4,5.6,32,-99.99,,,-99.99,WSDL version 423,2013-02-26 01:28:00,
2013-02-25 19:29:00,56.1,26.7,29.62,East,90,3.4,5.6,32,-99.99,,,-99.99,WSDL version 423,2013-02-26 01:29:00,
2013-02-25 19:33:00,56.1,26.6,29.62,NE,53,4.0,4.9,32,-99.99,,,-99.99,WSDL version 423,2013-02-26 01:33:00,
2013-02-25 19:34:00,56.1,26.6,29.62,East,101,3.5,4.9,32,-99.99,,,-99.99,WSDL version 423,2013-02-26 01:34:00,
2013-02-25 19:39:00,56.0,26.6,29.62,East,79,1.6,5.4,32,-99.99,,,-99.99,WSDL version 423,2013-02-26 01:39:00,
2013-02-25 19:40:00,56.0,26.5,29.62,NNE,23,3.4,5.4,32,-99.99,,,-99.99,WSDL version 423,2013-02-26 01:40:00,
2013-02-25 19:45:00,55.8,26.4,29.62,East,90,4.7,5.4,32,-99.99,,,-99.99,WSDL version 423,2013-02-26 01:45:00,
2013-02-25 19:46:00,55.8,26.4,29.56,SE,135,4.3,5.4,32,-99.99,,,-99.99,WSDL version 423,2013-02-26 01:46:00,
2013-02-25 19:51:00,55.6,26.2,29.56,NE,45,4.8,5.8,32,-99.99,,,-99.99,WSDL version 423,2013-02-26 01:51:00,
2013-02-25 19:52:00,55.6,26.2,29.56,NE,53,4.0,5.8,32,-99.99,,,-99.99,WSDL version 423,2013-02-26 01:52:00,
2013-02-25 19:53:00,55.6,26.2,29.56,SSW,203,2.7,5.8,32,-99.99,,,-99.99,WSDL version 423,2013-02-26 01:53:00,
2013-02-25 19:56:00,55.6,26.2,29.56,North,0,0.0,5.8,32,-99.99,,,-99.99,WSDL version 423,2013-02-26 01:56:00,
2013-02-25 19:59:00,55.5,26.2,29.56,NNE,23,2.0,5.8,32,-99.99,,,-99.99,WSDL version 423,2013-02-26 01:59:00,
2013-02-25 20:01:00,55.5,26.1,29.56,ESE,105,3.5,4.7,32,-99.99,,,-99.99,WSDL version 423,2013-02-26 02:01:00,
2013-02-25 20:04:00,55.4,26.0,29.56,South,169,2.6,7.8,32,-99.99,,,-99.99,WSDL version 423,2013-02-26 02:04:00,
2013-02-25 20:07:00,55.4,26.1,29.56,North,0,0.0,7.8,32,-99.99,,,-99.99,WSDL version 423,2013-02-26 02:07:00,
2013-02-25 20:11:00,55.5,26.1,29.56,SE,135,2.2,7.8,32,-99.99,,,-99.99,WSDL version 423,2013-02-26 02:11:00,
2013-02-25 20:12:00,55.4,26.1,29.56,East,98,3.3,5.4,32,-99.99,,,-99.99,WSDL version 423,2013-02-26 02:12:00,
2013-02-25 20:17:00,55.4,26.0,29.56,West,270,2.2,5.4,32,-99.99,,,-99.99,WSDL version 423,2013-02-26 02:17:00,
2013-02-25 20:18:00,55.3,26.0,29.56,West,263,2.2,5.4,32,-99.99,,,-99.99,WSDL version 423,2013-02-26 02:18:00,
2013-02-25 20:23:00,55.3,26.0,29.56,ENE,62,2.2,4.5,32,-99.99,,,-99.99,WSDL version 423,2013-02-26 02:23:00,
2013-02-25 20:26:00,55.3,25.9,29.56,ENE,68,5.4,5.8,32,-99.99,,,-99.99,WSDL version 423,2013-02-26 02:26:00,
2013-02-25 20:28:00,55.2,25.9,29.56,North,0,0.0,5.8,32,-99.99,,,-99.99,WSDL version 423,2013-02-26 02:28:00,
2013-02-25 20:32:00,55.2,25.9,29.53,SSE,158,3.1,5.8,32,-99.99,,,-99.99,WSDL version 423,2013-02-26 02:32:00,
2013-02-25 20:34:00,55.2,26.0,29.53,ESE,113,2.9,5.8,32,-99.99,,,-99.99,WSDL version 423,2013-02-26 02:34:00,
2013-02-25 20:37:00,55.2,26.1,29.53,SSW,203,2.7,4.3,33,-99.99,,,-99.99,WSDL version 423,2013-02-26 02:37:00,
2013-02-25 20:39:00,55.1,26.0,29.53,NNW,338,2.0,4.3,32,-99.99,,,-99.99,WSDL version 423,2013-02-26 02:39:00,
2013-02-25 20:43:00,55.0,25.7,29.53,North,0,0.0,6.0,32,-99.99,,,-99.99,WSDL version 423,2013-02-26 02:43:00,
2013-02-25 20:44:00,55.0,25.7,29.53,East,90,3.4,6.0,32,-99.99,,,-99.99,WSDL version 423,2013-02-26 02:44:00,
2013-02-25 20:49:00,55.1,26.3,29.53,West,263,3.0,6.0,33,-99.99,,,-99.99,WSDL version 423,2013-02-26 02:49:00,
2013-02-25 20:50:00,55.1,26.2,29.53,ESE,113,2.7,4.9,32,-99.99,,,-99.99,WSDL version 423,2013-02-26 02:50:00,
2013-02-25 20:51:00,55.1,26.2,29.53,North,0,0.0,4.0,32,-99.99,,,-99.99,WSDL version 423,2013-02-26 02:51:00,
2013-02-25 20:54:00,55.1,26.0,29.53,ESE,105,2.8,4.0,32,-99.99,,,-99.99,WSDL version 423,2013-02-26 02:54:00,
2013-02-25 20:55:00,55.0,26.0,29.53,East,90,3.4,4.0,32,-99.99,,,-99.99,WSDL version 423,2013-02-26 02:55:00,
2013-02-25 21:00:00,55.1,25.9,29.53,NE,38,3.4,6.0,33,-99.99,,,-99.99,WSDL version 423,2013-02-26 03:00:00,
2013-02-25 21:01:00,55.1,26.0,29.53,NNE,18,2.8,6.5,33,-99.99,,,-99.99,WSDL version 423,2013-02-26 03:01:00,
2013-02-25 21:05:00,55.0,25.8,29.53,NE,45,2.8,6.5,32,-99.99,,,-99.99,WSDL version 423,2013-02-26 03:05:00,
2013-02-25 21:06:00,55.0,25.8,29.53,SE,128,2.5,6.5,33,-99.99,,,-99.99,WSDL version 423,2013-02-26 03:06:00,
2013-02-25 21:10:00,55.0,26.2,29.53,North,0,0.0,6.5,33,-99.99,,,-99.99,WSDL version 423,2013-02-26 03:10:00,
2013-02-25 21:12:00,55.0,26.0,29.53,ENE,77,4.3,8.9,32,-99.99,,,-99.99,WSDL version 423,2013-02-26 03:12:00,
2013-02-25 21:17:00,55.2,26.6,29.53,NE,56,2.7,8.9,33,-99.99,,,-99.99,WSDL version 423,2013-02-26 03:17:00,
2013-02-25 21:18:00,55.2,26.6,29.53,ENE,68,2.1,8.9,33,-99.99,,,-99.99,WSDL version 423,2013-02-26 03:18:00,
2013-02-25 21:23:00,55.2,25.9,29.53,NE,56,4.8,6.5,32,-99.99,,,-99.99,WSDL version 423,2013-02-26 03:23:00,
2013-02-25 21:24:00,55.2,25.9,29.53,ENE,59,4.0,7.2,32,-99.99,,,-99.99,WSDL version 423,2013-02-26 03:24:00,
2013-02-25 21:28:00,55.2,26.5,29.53,ESE,113,3.6,7.2,33,-99.99,,,-99.99,WSDL version 423,2013-02-26 03:28:00,
2013-02-25 21:29:00,55.2,26.6,29.53,East,79,3.1,7.2,33,-99.99,,,-99.99,WSDL version 423,2013-02-26 03:29:00,
2013-02-25 21:33:00,55.2,26.4,29.50,ENE,68,3.8,7.2,33,-99.99,,,-99.99,WSDL version 423,2013-02-26 03:33:00,
2013-02-25 21:34:00,55.1,26.4,29.50,East,84,3.6,6.3,33,-99.99,,,-99.99,WSDL version 423,2013-02-26 03:34:00,
2013-02-25 21:39:00,55.0,26.5,29.50,ENE,75,1.6,5.6,33,-99.99,,,-99.99,WSDL version 423,2013-02-26 03:39:00,
2013-02-25 21:44:00,55.0,26.5,29.50,ENE,73,5.6,7.4,33,-99.99,,,-99.99,WSDL version 423,2013-02-26 03:44:00,
2013-02-25 21:45:00,55.0,26.5,29.50,ESE,105,4.9,7.4,33,-99.99,,,-99.99,WSDL version 423,2013-02-26 03:45:00,
2013-02-25 21:49:00,55.0,26.5,29.50,East,90,4.4,8.7,33,-99.99,,,-99.99,WSDL version 423,2013-02-26 03:49:00,
2013-02-25 21:51:00,55.0,26.4,29.50,ENE,68,2.2,8.7,33,-99.99,,,-99.99,WSDL version 423,2013-02-26 03:51:00,
2013-02-25 21:54:00,54.9,26.4,29.50,East,90,3.2,8.7,33,-99.99,,,-99.99,WSDL version 423,2013-02-26 03:54:00,
2013-02-25 22:00:00,54.8,26.3,29.50,ENE,68,3.9,6.0,33,-99.99,,,-99.99,WSDL version 423,2013-02-26 04:00:00,
2013-02-25 22:03:00,54.8,26.2,29.50,WNW,284,3.3,6.0,33,-99.99,,,-99.99,WSDL version 423,2013-02-26 04:03:00,
2013-02-25 22:06:00,54.7,26.1,29.50,ENE,60,2.8,8.7,33,-99.99,,,-99.99,WSDL version 423,2013-02-26 04:06:00,
2013-02-25 22:08:00,54.7,26.1,29.50,East,84,2.9,8.7,33,-99.99,,,-99.99,WSDL version 423,2013-02-26 04:08:00,
2013-02-25 22:13:00,54.7,26.1,29.50,East,90,2.0,8.7,33,-99.99,,,-99.99,WSDL version 423,2013-02-26 04:13:00,
2013-02-25 22:17:00,54.7,26.1,29.50,ESE,113,3.0,7.4,33,-99.99,,,-99.99,WSDL version 423,2013-02-26 04:17:00,
2013-02-25 22:18:00,54.7,26.1,29.50,NE,51,2.7,7.4,33,-99.99,,,-99.99,WSDL version 423,2013-02-26 04:18:00,
2013-02-25 22:22:00,54.6,26.1,29.50,NE,45,3.8,6.0,33,-99.99,,,-99.99,WSDL version 423,2013-02-26 04:22:00,
2013-02-25 22:23:00,54.5,26.0,29.50,SE,124,4.1,6.0,33,-99.99,,,-99.99,WSDL version 423,2013-02-26 04:23:00,
2013-02-25 22:28:00,54.5,26.0,29.50,ENE,73,2.8,9.6,33,-99.99,,,-99.99,WSDL version 423,2013-02-26 04:28:00,
2013-02-25 22:29:00,54.5,26.0,29.50,ENE,77,3.5,10.3,33,-99.99,,,-99.99,WSDL version 423,2013-02-26 04:29:00,
2013-02-25 22:34:00,54.6,26.1,29.47,ENE,72,1.9,10.3,33,-99.99,,,-99.99,WSDL version 423,2013-02-26 04:34:00,
2013-02-25 22:36:00,54.5,26.0,29.47,East,79,3.4,10.3,33,-99.99,,,-99.99,WSDL version 423,2013-02-26 04:36:00,
2013-02-25 22:37:00,54.5,26.0,29.47,SE,146,1.5,10.3,33,-99.99,,,-99.99,WSDL version 423,2013-02-26 04:37:00,
2013-02-25 22:39:00,54.5,26.0,29.47,NE,34,2.6,5.4,33,-99.99,,,-99.99,WSDL version 423,2013-02-26 04:39:00,
2013-02-25 22:42:00,54.5,26.0,29.47,ESE,120,2.5,5.8,33,-99.99,,,-99.99,WSDL version 423,2013-02-26 04:42:00,
2013-02-25 22:44:00,54.5,26.0,29.47,NE,45,3.8,5.8,33,-99.99,,,-99.99,WSDL version 423,2013-02-26 04:44:00,
2013-02-25 22:48:00,54.5,26.3,29.44,ESE,104,2.4,5.8,34,-99.99,,,-99.99,WSDL version 423,2013-02-26 04:48:00,
2013-02-25 22:49:00,54.5,26.4,29.44,West,281,2.6,5.8,34,-99.99,,,-99.99,WSDL version 423,2013-02-26 04:49:00,
2013-02-25 22:54:00,54.3,26.6,29.44,ESE,105,2.3,3.6,34,-99.99,,,-99.99,WSDL version 423,2013-02-26 04:54:00,
2013-02-25 22:56:00,54.3,26.5,29.44,East,90,3.6,3.6,34,-99.99,,,-99.99,WSDL version 423,2013-02-26 04:56:00,
2013-02-25 23:00:00,54.3,26.5,29.44,ESE,113,3.5,5.4,34,-99.99,,,-99.99,WSDL version 423,2013-02-26 05:00:00,
2013-02-25 23:01:00,54.3,26.5,29.44,ESE,113,3.5,5.4,34,-99.99,,,-99.99,WSDL version 423,2013-02-26 05:01:00,
2013-02-25 23:06:00,54.2,27.2,29.44,NE,56,2.2,9.6,36,-99.99,,,-99.99,WSDL version 423,2013-02-26 05:06:00,
2013-02-25 23:08:00,54.1,27.8,29.44,SSE,158,2.6,9.6,39,-99.99,,,-99.99,WSDL version 423,2013-02-26 05:08:00,
2013-02-25 23:09:00,54.0,28.3,29.44,SE,143,2.0,9.6,40,-99.99,,,-99.99,WSDL version 423,2013-02-26 05:09:00,
2013-02-25 23:13:00,53.5,30.0,29.44,South,188,1.3,9.6,41,-99.99,,,-99.99,WSDL version 423,2013-02-26 05:13:00,
2013-02-25 23:14:00,53.3,30.1,29.44,ESE,113,1.1,9.6,41,-99.99,,,-99.99,WSDL version 423,2013-02-26 05:14:00,
2013-02-25 23:15:00,53.2,30.1,29.44,East,79,1.6,3.1,41,-99.99,,,-99.99,WSDL version 423,2013-02-26 05:15:00,
2013-02-25 23:20:00,52.6,30.6,29.44,North,-999,-999.0,-999.0,44,-99.99,,,-99.99,WSDL version 423,2013-02-26 05:20:00,
2013-02-25 23:21:00,52.4,30.8,29.44,North,-999,-999.0,-999.0,44,-99.99,,,-99.99,WSDL version 423,2013-02-26 05:21:00,
2013-02-25 23:23:00,52.2,31.0,29.44,North,-999,-999.0,-999.0,45,-99.99,,,-99.99,WSDL version 423,2013-02-26 05:23:00,
2013-02-25 23:28:00,51.4,32.1,29.44,North,-999,-999.0,-999.0,50,-99.99,,,-99.99,WSDL version 423,2013-02-26 05:28:00,
2013-02-25 23:29:00,51.2,32.1,29.44,North,-999,-999.0,-999.0,47,-99.99,,,-99.99,WSDL version 423,2013-02-26 05:29:00,
2013-02-25 23:30:00,51.1,32.2,29.44,North,-999,-999.0,-999.0,49,-99.99,,,-99.99,WSDL version 423,2013-02-26 05:30:00,
2013-02-25 23:34:00,50.7,32.1,29.44,North,-999,-999.0,-999.0,50,-99.99,,,-99.99,WSDL version 423,2013-02-26 05:34:00,
2013-02-25 23:35:00,50.6,32.3,29.44,North,-999,-999.0,-999.0,52,-99.99,,,-99.99,WSDL version 423,2013-02-26 05:35:00,
2013-02-25 23:36:00,50.4,32.5,29.44,North,-999,-999.0,-999.0,51,-99.99,,,-99.99,WSDL version 423,2013-02-26 05:36:00,
2013-02-25 23:38:00,50.2,32.8,29.44,North,-999,-999.0,-999.0,52,-99.99,,,-99.99,WSDL version 423,2013-02-26 05:38:00,
2013-02-25 23:40:00,50.0,32.9,29.44,North,-999,-999.0,-999.0,52,-99.99,,,-99.99,WSDL version 423,2013-02-26 05:40:00,
2013-02-25 23:45:00,49.4,33.4,29.44,North,-999,-999.0,-999.0,54,-99.99,,,-99.99,WSDL version 423,2013-02-26 05:45:00,
2013-02-25 23:46:00,49.4,33.4,29.44,North,-999,-999.0,-999.0,55,-99.99,,,-99.99,WSDL version 423,2013-02-26 05:46:00,
2013-02-25 23:47:00,49.3,33.4,29.44,North,-999,-999.0,-999.0,55,-99.99,,,-99.99,WSDL version 423,2013-02-26 05:47:00,
2013-02-25 23:51:00,48.9,33.5,29.44,North,-999,-999.0,-999.0,56,-99.99,,,-99.99,WSDL version 423,2013-02-26 05:51:00,
2013-02-25 23:52:00,48.8,33.4,29.44,North,-999,-999.0,-999.0,55,-99.99,,,-99.99,WSDL version 423,2013-02-26 05:52:00,
2013-02-25 23:54:00,48.8,33.8,29.44,North,-999,-999.0,-999.0,58,-99.99,,,-99.99,WSDL version 423,2013-02-26 05:54:00,
2013-02-25 23:55:00,48.7,33.9,29.44,North,-999,-999.0,-999.0,57,-99.99,,,-99.99,WSDL version 423,2013-02-26 05:55:00,
2013-02-25 23:58:00,48.5,34.2,29.44,North,-999,-999.0,-999.0,58,-99.99,,,-99.99,WSDL version 423,2013-02-26 05:58:00,
2013-02-25 23:59:00,48.4,34.3,29.44,North,-999,-999.0,-999.0,59,-99.99,,,-99.99,WSDL version 423,2013-02-26 05:59:00,